Time,TemperatureF,DewpointF,PressureIn,WindDirection,WindDirectionDegrees,WindSpeedMPH,WindSpeedGustMPH,Humidity,HourlyPrecipIn,Conditions,Clouds,dailyrainin,SoftwareType,DateUTC
2013-07-25 00:03:00,55.9,52.4,28.82,NW,315,0.0,0.0,88,0.00,CLR,,0.00,WeatherDisplay:10.37,2013-07-25 05:03:00,
2013-07-25 00:04:00,55.9,52.4,28.82,NW,315,0.0,0.0,88,0.00,CLR,,0.00,WeatherDisplay:10.37,2013-07-25 05:04:00,
2013-07-25 00:05:00,55.9,52.4,28.82,NW,315,0.0,0.0,88,0.00,CLR,,0.00,WeatherDisplay:10.37,2013-07-25 05:05:00,
2013-07-25 00:08:00,55.6,52.1,28.82,NW,315,0.0,0.0,88,0.00,CLR,,0.00,WeatherDisplay:10.37,2013-07-25 05:08:00,
2013-07-25 00:09:00,55.6,52.1,28.82,NW,315,0.0,0.0,88,0.00,CLR,,0.00,WeatherDisplay:10.37,2013-07-25 05:09:00,
2013-07-25 00:10:00,55.6,52.1,28.82,NW,315,0.0,0.0,88,0.00,CLR,,0.00,WeatherDisplay:10.37,2013-07-25 05:10:00,
2013-07-25 00:14:00,55.8,52.3,28.82,NW,315,0.0,0.0,88,0.00,CLR,,0.00,WeatherDisplay:10.37,2013-07-25 05:14:00,
2013-07-25 00:15:00,55.8,52.3,28.82,NW,315,0.0,0.0,88,0.00,CLR,,0.00,WeatherDisplay:10.37,2013-07-25 05:15:00,
2013-07-25 00:19:00,55.6,52.1,28.82,NW,315,0.0,0.0,88,0.00,CLR,,0.00,WeatherDisplay:10.37,2013-07-25 05:19:00,
2013-07-25 00:20:00,55.4,52.2,28.82,NW,315,0.0,0.0,89,0.00,CLR,,0.00,WeatherDisplay:10.37,2013-07-25 05:20:00,
2013-07-25 00:21:00,55.4,52.2,28.82,NW,315,0.0,0.0,89,0.00,CLR,,0.00,WeatherDisplay:10.37,2013-07-25 05:21:00,
2013-07-25 00:24:00,55.4,51.9,28.82,NW,315,0.0,0.0,88,0.00,CLR,,0.00,WeatherDisplay:10.37,2013-07-25 05:24:00,
2013-07-25 00:25:00,55.4,52.2,28.82,NW,315,0.0,0.0,89,0.00,CLR,,0.00,WeatherDisplay:10.37,2013-07-25 05:25:00,
2013-07-25 00:26:00,55.4,52.2,28.82,NW,315,0.0,0.0,89,0.00,CLR,,0.00,WeatherDisplay:10.37,2013-07-25 05:26:00,
2013-07-25 00:29:00,55.2,52.0,28.82,NW,315,0.0,0.0,89,0.00,CLR,,0.00,WeatherDisplay:10.37,2013-07-25 05:29:00,
2013-07-25 00:30:00,55.2,52.0,28.82,NW,315,0.0,0.0,89,0.00,CLR,,0.00,WeatherDisplay:10.37,2013-07-25 05:30:00,
2013-07-25 00:31:00,55.2,52.0,28.82,NW,315,0.0,0.0,89,0.00,CLR,,0.00,WeatherDisplay:10.37,2013-07-25 05:31:00,
2013-07-25 00:34:00,55.2,52.3,28.82,NW,315,0.0,0.0,90,0.00,CLR,,0.00,WeatherDisplay:10.37,2013-07-25 05:34:00,
2013-07-25 00:35:00,55.2,52.3,28.82,NW,315,0.0,0.0,90,0.00,CLR,,0.00,WeatherDisplay:10.37,2013-07-25 05:35:00,
2013-07-25 00:36:00,55.0,52.2,28.82,NW,315,0.0,0.0,90,0.00,CLR,,0.00,WeatherDisplay:10.37,2013-07-25 05:36:00,
2013-07-25 00:40:00,55.0,52.2,28.82,NW,315,0.0,0.0,90,0.00,CLR,,0.00,WeatherDisplay:10.37,2013-07-25 05:40:00,
2013-07-25 00:41:00,55.0,52.2,28.82,NW,315,0.0,0.0,90,0.00,CLR,,0.00,WeatherDisplay:10.37,2013-07-25 05:41:00,
2013-07-25 00:45:00,54.9,52.0,28.82,NW,315,0.0,0.0,90,0.00,CLR,,0.00,WeatherDisplay:10.37,2013-07-25 05:45:00,
2013-07-25 00:46:00,54.9,52.0,28.82,NW,315,0.0,0.0,90,0.00,CLR,,0.00,WeatherDisplay:10.37,2013-07-25 05:46:00,
2013-07-25 00:50:00,54.7,51.8,28.82,NW,315,0.0,0.0,90,0.00,CLR,,0.00,WeatherDisplay:10.37,2013-07-25 05:50:00,
2013-07-25 00:51:00,54.7,51.8,28.82,NW,315,0.0,0.0,90,0.00,CLR,,0.00,WeatherDisplay:10.37,2013-07-25 05:51:00,
2013-07-25 00:52:00,54.7,51.8,28.82,NW,315,0.0,0.0,90,0.00,CLR,,0.00,WeatherDisplay:10.37,2013-07-25 05:52:00,
2013-07-25 00:55:00,54.7,51.8,28.79,NW,315,0.0,0.0,90,0.00,CLR,,0.00,WeatherDisplay:10.37,2013-07-25 05:55:00,
2013-07-25 00:56:00,54.7,51.8,28.79,NW,315,0.0,0.0,90,0.00,CLR,,0.00,WeatherDisplay:10.37,2013-07-25 05:56:00,
2013-07-25 00:57:00,54.7,51.8,28.79,NW,315,0.0,0.0,90,0.00,CLR,,0.00,WeatherDisplay:10.37,2013-07-25 05:57:00,
2013-07-25 01:00:00,54.5,51.6,28.79,NW,315,0.0,0.0,90,0.00,CLR,,0.00,WeatherDisplay:10.37,2013-07-25 06:00:00,
2013-07-25 01:01:00,54.5,51.6,28.79,NW,315,0.0,0.0,90,0.00,CLR,,0.00,WeatherDisplay:10.37,2013-07-25 06:01:00,
2013-07-25 01:02:00,54.5,51.6,28.79,NW,315,0.0,0.0,90,0.00,CLR,,0.00,WeatherDisplay:10.37,2013-07-25 06:02:00,
2013-07-25 01:03:00,54.5,51.6,28.79,NW,315,0.0,0.0,90,0.00,CLR,,0.00,WeatherDisplay:10.37,2013-07-25 06:03:00,
2013-07-25 01:06:00,54.5,51.6,28.79,NW,315,0.0,0.0,90,0.00,CLR,,0.00,WeatherDisplay:10.37,2013-07-25 06:06:00,
2013-07-25 01:07:00,54.5,51.9,28.79,NW,315,0.0,0.0,91,0.00,CLR,,0.00,WeatherDisplay:10.37,2013-07-25 06:07:00,
2013-07-25 01:08:00,54.5,51.9,28.79,NW,315,0.0,0.0,91,0.00,CLR,,0.00,WeatherDisplay:10.37,2013-07-25 06:08:00,
2013-07-25 01:11:00,54.3,51.7,28.82,NW,315,0.0,0.0,91,0.00,CLR,,0.00,WeatherDisplay:10.37,2013-07-25 06:11:00,
2013-07-25 01:12:00,54.3,51.7,28.82,NW,315,0.0,0.0,91,0.00,CLR,,0.00,WeatherDisplay:10.37,2013-07-25 06:12:00,
2013-07-25 01:13:00,54.3,51.7,28.82,NW,315,0.0,0.0,91,0.00,CLR,,0.00,WeatherDisplay:10.37,2013-07-25 06:13:00,
2013-07-25 01:16:00,54.3,51.7,28.82,NW,315,0.0,0.0,91,0.00,CLR,,0.00,WeatherDisplay:10.37,2013-07-25 06:16:00,
2013-07-25 01:17:00,54.3,51.7,28.82,NW,315,0.0,0.0,91,0.00,CLR,,0.00,WeatherDisplay:10.37,2013-07-25 06:17:00,
2013-07-25 01:18:00,54.3,51.7,28.82,NW,315,0.0,0.0,91,0.00,CLR,,0.00,WeatherDisplay:10.37,2013-07-25 06:18:00,
2013-07-25 01:21:00,54.1,51.6,28.82,NNW,338,0.0,0.0,91,0.00,CLR,,0.00,WeatherDisplay:10.37,2013-07-25 06:21:00,
2013-07-25 01:22:00,54.1,51.6,28.82,NNW,338,0.0,0.0,91,0.00,CLR,,0.00,WeatherDisplay:10.37,2013-07-25 06:22:00,
2013-07-25 01:23:00,54.1,51.6,28.82,NNW,338,0.0,0.0,91,0.00,CLR,,0.00,WeatherDisplay:10.37,2013-07-25 06:23:00,
2013-07-25 01:27:00,54.1,51.6,28.79,NNW,338,0.0,0.0,91,0.00,CLR,,0.00,WeatherDisplay:10.37,2013-07-25 06:27:00,
2013-07-25 01:28:00,54.1,51.6,28.79,NNW,338,0.0,0.0,91,0.00,CLR,,0.00,WeatherDisplay:10.37,2013-07-25 06:28:00,
2013-07-25 01:32:00,54.0,51.4,28.79,NNW,338,0.0,0.0,91,0.00,CLR,,0.00,WeatherDisplay:10.37,2013-07-25 06:32:00,
2013-07-25 01:33:00,54.0,51.4,28.79,NNW,338,0.0,0.0,91,0.00,CLR,,0.00,WeatherDisplay:10.37,2013-07-25 06:33:00,
2013-07-25 01:34:00,54.0,51.4,28.79,NNW,338,0.0,0.0,91,0.00,CLR,,0.00,WeatherDisplay:10.37,2013-07-25 06:34:00,
2013-07-25 01:37:00,53.8,51.2,28.79,NNW,338,0.0,0.0,91,0.00,CLR,,0.00,WeatherDisplay:10.37,2013-07-25 06:37:00,
2013-07-25 01:38:00,53.8,51.2,28.79,NNW,338,0.0,0.0,91,0.00,CLR,,0.00,WeatherDisplay:10.37,2013-07-25 06:38:00,
2013-07-25 01:39:00,53.8,51.5,28.79,NNW,338,0.0,0.0,92,0.00,CLR,,0.00,WeatherDisplay:10.37,2013-07-25 06:39:00,
2013-07-25 01:43:00,53.8,51.5,28.79,NNE,22,0.0,0.0,92,0.00,CLR,,0.00,WeatherDisplay:10.37,2013-07-25 06:43:00,
2013-07-25 01:44:00,53.8,51.5,28.79,NNE,22,0.0,0.0,92,0.00,CLR,,0.00,WeatherDisplay:10.37,2013-07-25 06:44:00,
2013-07-25 01:48:00,53.6,51.3,28.79,NNE,22,0.0,0.0,92,0.00,CLR,,0.00,WeatherDisplay:10.37,2013-07-25 06:48:00,
2013-07-25 01:49:00,53.6,51.3,28.79,NNE,22,0.0,0.0,92,0.00,CLR,,0.00,WeatherDisplay:10.37,2013-07-25 06:49:00,
2013-07-25 01:53:00,53.4,51.2,28.79,NNE,22,0.0,0.0,92,0.00,CLR,,0.00,WeatherDisplay:10.37,2013-07-25 06:53:00,
2013-07-25 01:54:00,53.4,51.2,28.79,NNE,22,0.0,0.0,92,0.00,CLR,,0.00,WeatherDisplay:10.37,2013-07-25 06:54:00,
2013-07-25 01:58:00,53.2,51.0,28.79,NNE,22,0.0,0.0,92,0.00,CLR,,0.00,WeatherDisplay:10.37,2013-07-25 06:58:00,
2013-07-25 01:59:00,53.2,51.0,28.79,NNE,22,0.0,0.0,92,0.00,CLR,,0.00,WeatherDisplay:10.37,2013-07-25 06:59:00,
2013-07-25 02:00:00,53.2,51.0,28.79,NNE,22,0.0,0.0,92,0.00,CLR,,0.00,WeatherDisplay:10.37,2013-07-25 07:00:00,
2013-07-25 02:03:00,53.2,51.0,28.79,NNE,22,0.0,0.0,92,0.00,CLR,,0.00,WeatherDisplay:10.37,2013-07-25 07:03:00,
2013-07-25 02:04:00,53.1,50.8,28.79,NNE,22,0.0,0.0,92,0.00,CLR,,0.00,WeatherDisplay:10.37,2013-07-25 07:04:00,
2013-07-25 02:05:00,53.1,50.8,28.79,NNE,22,0.0,0.0,92,0.00,CLR,,0.00,WeatherDisplay:10.37,2013-07-25 07:05:00,
2013-07-25 02:08:00,53.1,50.8,28.79,NNE,22,0.0,0.0,92,0.00,CLR,,0.00,WeatherDisplay:10.37,2013-07-25 07:08:00,
2013-07-25 02:09:00,53.1,51.1,28.79,NNE,22,0.0,0.0,93,0.00,CLR,,0.00,WeatherDisplay:10.37,2013-07-25 07:09:00,
2013-07-25 02:10:00,53.1,51.1,28.79,NNE,22,0.0,0.0,93,0.00,CLR,,0.00,WeatherDisplay:10.37,2013-07-25 07:10:00,
2013-07-25 02:14:00,53.1,51.1,28.79,NNE,22,0.0,0.0,93,0.00,CLR,,0.00,WeatherDisplay:10.37,2013-07-25 07:14:00,
2013-07-25 02:15:00,53.2,51.3,28.79,NNE,22,0.0,0.0,93,0.00,CLR,,0.00,WeatherDisplay:10.37,2013-07-25 07:15:00,
2013-07-25 02:19:00,53.2,51.3,28.79,NNE,22,0.0,0.0,93,0.00,CLR,,0.00,WeatherDisplay:10.37,2013-07-25 07:19:00,
2013-07-25 02:20:00,53.2,51.3,28.79,NNE,22,0.0,0.0,93,0.00,CLR,,0.00,WeatherDisplay:10.37,2013-07-25 07:20:00,
2013-07-25 02:21:00,53.2,51.3,28.79,NNE,22,0.0,0.0,93,0.00,CLR,,0.00,WeatherDisplay:10.37,2013-07-25 07:21:00,
2013-07-25 02:24:00,53.1,51.1,28.79,NNE,22,0.0,0.0,93,0.00,CLR,,0.00,WeatherDisplay:10.37,2013-07-25 07:24:00,
2013-07-25 02:25:00,53.1,51.1,28.79,NNE,22,0.0,0.0,93,0.00,CLR,,0.00,WeatherDisplay:10.37,2013-07-25 07:25:00,
2013-07-25 02:26:00,53.1,51.1,28.79,NNE,22,0.0,0.0,93,0.00,CLR,,0.00,WeatherDisplay:10.37,2013-07-25 07:26:00,
2013-07-25 02:27:00,53.1,51.1,28.79,NNE,22,0.0,0.0,93,0.00,CLR,,0.00,WeatherDisplay:10.37,2013-07-25 07:27:00,
2013-07-25 02:29:00,52.9,50.9,28.79,NNE,22,0.0,0.0,93,0.00,CLR,,0.00,WeatherDisplay:10.37,2013-07-25 07:29:00,
2013-07-25 02:31:00,53.1,51.1,28.79,NNE,22,0.0,0.0,93,0.00,CLR,,0.00,WeatherDisplay:10.37,2013-07-25 07:31:00,
2013-07-25 02:32:00,53.1,51.1,28.79,NNE,22,0.0,0.0,93,0.00,CLR,,0.00,WeatherDisplay:10.37,2013-07-25 07:32:00,
2013-07-25 02:34:00,53.1,51.1,28.79,NNE,22,0.0,0.0,93,0.00,CLR,,0.00,WeatherDisplay:10.37,2013-07-25 07:34:00,
2013-07-25 02:35:00,53.1,51.1,28.79,NNE,22,0.0,0.0,93,0.00,CLR,,0.00,WeatherDisplay:10.37,2013-07-25 07:35:00,
2013-07-25 02:37:00,53.1,51.1,28.79,NNE,22,0.0,0.0,93,0.00,CLR,,0.00,WeatherDisplay:10.37,2013-07-25 07:37:00,
2013-07-25 02:39:00,53.1,51.1,28.79,NNE,22,0.0,0.0,93,0.00,CLR,,0.00,WeatherDisplay:10.37,2013-07-25 07:39:00,
2013-07-25 02:40:00,53.1,51.1,28.79,NNE,22,0.0,0.0,93,0.00,CLR,,0.00,WeatherDisplay:10.37,2013-07-25 07:40:00,
2013-07-25 02:42:00,53.1,51.1,28.79,NNE,22,0.0,0.0,93,0.00,CLR,,0.00,WeatherDisplay:10.37,2013-07-25 07:42:00,
2013-07-25 02:44:00,52.9,50.9,28.79,NNE,22,0.0,0.0,93,0.00,CLR,,0.00,WeatherDisplay:10.37,2013-07-25 07:44:00,
2013-07-25 02:45:00,52.9,50.9,28.79,NNE,22,0.0,0.0,93,0.00,CLR,,0.00,WeatherDisplay:10.37,2013-07-25 07:45:00,
2013-07-25 02:47:00,52.9,50.9,28.79,NNE,22,0.0,0.0,93,0.00,CLR,,0.00,WeatherDisplay:10.37,2013-07-25 07:47:00,
2013-07-25 02:49:00,52.9,50.9,28.79,NNE,22,0.0,0.0,93,0.00,CLR,,0.00,WeatherDisplay:10.37,2013-07-25 07:49:00,
2013-07-25 02:50:00,52.7,50.7,28.79,NNE,22,0.0,0.0,93,0.00,CLR,,0.00,WeatherDisplay:10.37,2013-07-25 07:50:00,
2013-07-25 02:52:00,52.7,50.7,28.79,NNE,22,0.0,0.0,93,0.00,CLR,,0.00,WeatherDisplay:10.37,2013-07-25 07:52:00,
2013-07-25 02:53:00,52.7,50.7,28.79,NNE,22,0.0,0.0,93,0.00,CLR,,0.00,WeatherDisplay:10.37,2013-07-25 07:53:00,
2013-07-25 02:54:00,52.7,50.7,28.79,NNE,22,0.0,0.0,93,0.00,CLR,,0.00,WeatherDisplay:10.37,2013-07-25 07:54:00,
2013-07-25 02:55:00,52.7,50.7,28.79,NNE,22,0.0,0.0,93,0.00,CLR,,0.00,WeatherDisplay:10.37,2013-07-25 07:55:00,
2013-07-25 02:57:00,52.7,50.7,28.79,NNE,22,0.0,0.0,93,0.00,CLR,,0.00,WeatherDisplay:10.37,2013-07-25 07:57:00,
2013-07-25 02:58:00,52.7,50.7,28.79,NNE,22,0.0,0.0,93,0.00,CLR,,0.00,WeatherDisplay:10.37,2013-07-25 07:58:00,
2013-07-25 02:59:00,52.7,50.7,28.79,NNE,22,0.0,0.0,93,0.00,CLR,,0.00,WeatherDisplay:10.37,2013-07-25 07:59:00,
2013-07-25 03:01:00,52.7,50.7,28.79,NNE,22,0.0,0.0,93,0.00,CLR,,0.00,WeatherDisplay:10.37,2013-07-25 08:01:00,
2013-07-25 03:02:00,52.7,50.7,28.79,NNE,22,0.0,0.0,93,0.00,CLR,,0.00,WeatherDisplay:10.37,2013-07-25 08:02:00,
2013-07-25 03:03:00,52.7,50.7,28.79,NNE,22,0.0,0.0,93,0.00,CLR,,0.00,WeatherDisplay:10.37,2013-07-25 08:03:00,
2013-07-25 03:04:00,52.7,50.7,28.79,NNE,22,0.0,0.0,93,0.00,CLR,,0.00,WeatherDisplay:10.37,2013-07-25 08:04:00,
2013-07-25 03:07:00,52.7,50.7,28.79,NNE,22,0.0,0.0,93,0.00,CLR,,0.00,WeatherDisplay:10.37,2013-07-25 08:07:00,
2013-07-25 03:08:00,52.7,50.7,28.79,NNE,22,0.0,0.0,93,0.00,CLR,,0.00,WeatherDisplay:10.37,2013-07-25 08:08:00,
2013-07-25 03:09:00,52.7,50.7,28.79,NNE,22,0.0,0.0,93,0.00,CLR,,0.00,WeatherDisplay:10.37,2013-07-25 08:09:00,
2013-07-25 03:12:00,52.9,51.2,28.79,NNE,22,0.0,0.0,94,0.00,CLR,,0.00,WeatherDisplay:10.37,2013-07-25 08:12:00,
2013-07-25 03:13:00,52.9,51.2,28.79,NNE,22,0.0,0.0,94,0.00,CLR,,0.00,WeatherDisplay:10.37,2013-07-25 08:13:00,
2013-07-25 03:14:00,52.9,51.2,28.79,NNE,22,0.0,0.0,94,0.00,CLR,,0.00,WeatherDisplay:10.37,2013-07-25 08:14:00,
2013-07-25 03:17:00,53.1,51.4,28.79,NNE,22,0.0,0.0,94,0.00,CLR,,0.00,WeatherDisplay:10.37,2013-07-25 08:17:00,
2013-07-25 03:18:00,53.1,51.4,28.79,NNE,22,0.0,0.0,94,0.00,CLR,,0.00,WeatherDisplay:10.37,2013-07-25 08:18:00,
2013-07-25 03:19:00,53.1,51.4,28.79,NNE,22,0.0,0.0,94,0.00,CLR,,0.00,WeatherDisplay:10.37,2013-07-25 08:19:00,
2013-07-25 03:20:00,53.1,51.4,28.79,NNE,22,0.0,0.0,94,0.00,CLR,,0.00,WeatherDisplay:10.37,2013-07-25 08:20:00,
2013-07-25 03:23:00,53.2,51.6,28.79,NNE,22,0.0,0.0,94,0.00,CLR,,0.00,WeatherDisplay:10.37,2013-07-25 08:23:00,
2013-07-25 03:24:00,53.2,51.6,28.79,NNE,22,0.0,0.0,94,0.00,CLR,,0.00,WeatherDisplay:10.37,2013-07-25 08:24:00,
2013-07-25 03:25:00,53.2,51.6,28.79,NNE,22,0.0,0.0,94,0.00,CLR,,0.00,WeatherDisplay:10.37,2013-07-25 08:25:00,
2013-07-25 03:28:00,53.2,51.6,28.79,NNE,22,0.0,0.0,94,0.00,CLR,,0.00,WeatherDisplay:10.37,2013-07-25 08:28:00,
2013-07-25 03:29:00,53.2,51.6,28.79,NNE,22,0.0,0.0,94,0.00,CLR,,0.00,WeatherDisplay:10.37,2013-07-25 08:29:00,
2013-07-25 03:30:00,53.2,51.6,28.79,NNE,22,0.0,0.0,94,0.00,CLR,,0.00,WeatherDisplay:10.37,2013-07-25 08:30:00,
2013-07-25 03:33:00,53.6,51.9,28.79,East,90,0.0,0.0,94,0.00,CLR,,0.00,WeatherDisplay:10.37,2013-07-25 08:33:00,
2013-07-25 03:34:00,53.8,52.1,28.79,East,90,0.0,0.0,94,0.00,CLR,,0.00,WeatherDisplay:10.37,2013-07-25 08:34:00,
2013-07-25 03:35:00,53.8,52.1,28.79,East,90,0.0,0.0,94,0.00,CLR,,0.00,WeatherDisplay:10.37,2013-07-25 08:35:00,
2013-07-25 03:38:00,53.8,52.1,28.79,East,90,0.0,0.0,94,0.00,CLR,,0.00,WeatherDisplay:10.37,2013-07-25 08:38:00,
2013-07-25 03:39:00,53.8,52.1,28.79,East,90,0.0,0.0,94,0.00,CLR,,0.00,WeatherDisplay:10.37,2013-07-25 08:39:00,
2013-07-25 03:40:00,54.0,52.3,28.82,East,90,0.0,0.0,94,0.00,CLR,,0.00,WeatherDisplay:10.37,2013-07-25 08:40:00,
2013-07-25 03:44:00,54.0,52.3,28.82,East,90,0.0,0.0,94,0.00,CLR,,0.00,WeatherDisplay:10.37,2013-07-25 08:44:00,
2013-07-25 03:45:00,54.1,52.5,28.82,East,90,0.0,0.0,94,0.00,CLR,,0.00,WeatherDisplay:10.37,2013-07-25 08:45:00,
2013-07-25 03:49:00,54.1,52.5,28.82,East,90,0.0,0.0,94,0.00,CLR,,0.00,WeatherDisplay:10.37,2013-07-25 08:49:00,
2013-07-25 03:50:00,54.1,52.5,28.82,East,90,0.0,0.0,94,0.00,CLR,,0.00,WeatherDisplay:10.37,2013-07-25 08:50:00,
2013-07-25 03:51:00,54.1,52.5,28.82,SE,135,0.0,0.0,94,0.00,CLR,,0.00,WeatherDisplay:10.37,2013-07-25 08:51:00,
2013-07-25 03:54:00,54.3,52.6,28.82,SE,135,1.2,0.0,94,0.00,CLR,,0.00,WeatherDisplay:10.37,2013-07-25 08:54:00,
2013-07-25 03:55:00,54.3,52.6,28.82,ESE,117,0.0,1.0,94,0.00,CLR,,0.00,WeatherDisplay:10.37,2013-07-25 08:55:00,
2013-07-25 03:56:00,54.3,52.6,28.82,SE,135,0.0,0.0,94,0.00,CLR,,0.00,WeatherDisplay:10.37,2013-07-25 08:56:00,
2013-07-25 03:59:00,54.5,52.8,28.82,SE,135,2.3,0.0,94,0.00,CLR,,0.00,WeatherDisplay:10.37,2013-07-25 08:59:00,
2013-07-25 04:00:00,54.5,52.8,28.82,SE,135,0.0,0.0,94,0.00,CLR,,0.00,WeatherDisplay:10.37,2013-07-25 09:00:00,
2013-07-25 04:01:00,54.5,52.8,28.82,South,180,1.4,0.0,94,0.00,CLR,,0.00,WeatherDisplay:10.37,2013-07-25 09:01:00,
2013-07-25 04:05:00,54.5,53.1,28.82,SSE,158,0.0,0.0,95,0.00,CLR,,0.00,WeatherDisplay:10.37,2013-07-25 09:05:00,
2013-07-25 04:06:00,54.5,53.1,28.82,ESE,112,2.3,2.3,95,0.00,CLR,,0.00,WeatherDisplay:10.37,2013-07-25 09:06:00,
2013-07-25 04:10:00,54.5,53.1,28.79,SE,135,1.2,0.0,95,0.00,CLR,,0.00,WeatherDisplay:10.37,2013-07-25 09:10:00,
2013-07-25 04:11:00,54.5,53.1,28.79,ESE,112,0.0,0.0,95,0.00,CLR,,0.00,WeatherDisplay:10.37,2013-07-25 09:11:00,
2013-07-25 04:15:00,54.5,53.4,28.79,SE,135,1.2,0.0,96,0.00,CLR,,0.00,WeatherDisplay:10.37,2013-07-25 09:15:00,
2013-07-25 04:16:00,54.5,53.4,28.79,ESE,112,0.0,0.0,96,0.00,CLR,,0.00,WeatherDisplay:10.37,2013-07-25 09:16:00,
2013-07-25 04:17:00,54.5,53.4,28.79,East,90,1.6,0.0,96,0.00,CLR,,0.00,WeatherDisplay:10.37,2013-07-25 09:17:00,
2013-07-25 04:20:00,54.5,53.4,28.79,SE,135,1.2,0.0,96,0.00,CLR,,0.00,WeatherDisplay:10.37,2013-07-25 09:20:00,
2013-07-25 04:22:00,54.3,53.2,28.79,SE,135,0.0,0.0,96,0.00,CLR,,0.00,WeatherDisplay:10.37,2013-07-25 09:22:00,
2013-07-25 04:25:00,54.1,52.7,28.79,East,90,0.0,0.0,95,0.00,CLR,,0.00,WeatherDisplay:10.37,2013-07-25 09:25:00,
2013-07-25 04:27:00,54.1,52.7,28.79,East,90,1.2,0.0,95,0.00,CLR,,0.00,WeatherDisplay:10.37,2013-07-25 09:27:00,
2013-07-25 04:30:00,54.1,53.0,28.79,NE,45,0.0,1.4,96,0.00,CLR,,0.00,WeatherDisplay:10.37,2013-07-25 09:30:00,
2013-07-25 04:32:00,54.1,53.0,28.79,ESE,112,0.0,0.0,96,0.00,CLR,,0.00,WeatherDisplay:10.37,2013-07-25 09:32:00,
2013-07-25 04:33:00,54.1,53.0,28.79,ENE,68,0.0,0.0,96,0.00,CLR,,0.00,WeatherDisplay:10.37,2013-07-25 09:33:00,
2013-07-25 04:35:00,54.1,53.0,28.79,East,90,0.0,0.0,96,0.00,CLR,,0.00,WeatherDisplay:10.37,2013-07-25 09:35:00,
2013-07-25 04:36:00,54.1,53.0,28.79,East,90,0.0,0.0,96,0.00,CLR,,0.00,WeatherDisplay:10.37,2013-07-25 09:36:00,
2013-07-25 04:37:00,54.1,52.7,28.79,East,90,0.0,0.0,95,0.00,CLR,,0.00,WeatherDisplay:10.37,2013-07-25 09:37:00,
2013-07-25 04:38:00,54.1,52.7,28.79,East,90,0.0,0.0,95,0.00,CLR,,0.00,WeatherDisplay:10.37,2013-07-25 09:38:00,
2013-07-25 04:41:00,54.0,52.6,28.79,ESE,112,0.0,0.0,95,0.00,CLR,,0.00,WeatherDisplay:10.37,2013-07-25 09:41:00,
2013-07-25 04:42:00,54.0,52.6,28.79,ESE,112,0.0,0.0,95,0.00,CLR,,0.00,WeatherDisplay:10.37,2013-07-25 09:42:00,
2013-07-25 04:43:00,54.0,52.6,28.79,ESE,112,0.0,0.0,95,0.00,CLR,,0.00,WeatherDisplay:10.37,2013-07-25 09:43:00,
2013-07-25 04:47:00,53.8,52.4,28.79,ESE,112,0.0,0.0,95,0.00,CLR,,0.00,WeatherDisplay:10.37,2013-07-25 09:47:00,
2013-07-25 04:48:00,53.6,52.2,28.79,ESE,112,0.0,0.0,95,0.00,CLR,,0.00,WeatherDisplay:10.37,2013-07-25 09:48:00,
2013-07-25 04:52:00,53.4,52.0,28.79,ESE,112,0.0,0.0,95,0.00,CLR,,0.00,WeatherDisplay:10.37,2013-07-25 09:52:00,
2013-07-25 04:53:00,53.4,52.0,28.79,ESE,112,0.0,0.0,95,0.00,CLR,,0.00,WeatherDisplay:10.37,2013-07-25 09:53:00,
2013-07-25 04:57:00,53.2,51.8,28.79,ESE,112,0.0,0.0,95,0.00,CLR,,0.00,WeatherDisplay:10.37,2013-07-25 09:57:00,
2013-07-25 04:58:00,53.2,51.8,28.79,ESE,112,0.0,0.0,95,0.00,CLR,,0.00,WeatherDisplay:10.37,2013-07-25 09:58:00,
2013-07-25 04:59:00,53.2,51.8,28.79,ESE,112,0.0,0.0,95,0.00,CLR,,0.00,WeatherDisplay:10.37,2013-07-25 09:59:00,
2013-07-25 05:03:00,53.1,51.7,28.79,ESE,112,0.0,0.0,95,0.00,CLR,,0.00,WeatherDisplay:10.37,2013-07-25 10:03:00,
2013-07-25 05:04:00,53.1,51.7,28.79,ESE,112,0.0,0.0,95,0.00,CLR,,0.00,WeatherDisplay:10.37,2013-07-25 10:04:00,
2013-07-25 05:08:00,53.1,51.7,28.79,ESE,112,0.0,0.0,95,0.00,CLR,,0.00,WeatherDisplay:10.37,2013-07-25 10:08:00,
2013-07-25 05:09:00,53.1,51.7,28.79,ESE,112,0.0,0.0,95,0.00,CLR,,0.00,WeatherDisplay:10.37,2013-07-25 10:09:00,
2013-07-25 05:13:00,52.9,51.5,28.82,SSW,202,0.0,0.0,95,0.00,CLR,,0.00,WeatherDisplay:10.37,2013-07-25 10:13:00,
2013-07-25 05:14:00,52.9,51.5,28.82,SSW,202,0.0,0.0,95,0.00,CLR,,0.00,WeatherDisplay:10.37,2013-07-25 10:14:00,
2013-07-25 05:18:00,52.9,51.5,28.82,SSW,202,0.0,0.0,95,0.00,CLR,,0.00,WeatherDisplay:10.37,2013-07-25 10:18:00,
2013-07-25 05:19:00,52.9,51.5,28.82,SSW,202,0.0,0.0,95,0.00,CLR,,0.00,WeatherDisplay:10.37,2013-07-25 10:19:00,
2013-07-25 05:23:00,52.9,51.5,28.82,SSW,202,0.0,0.0,95,0.00,CLR,,0.00,WeatherDisplay:10.37,2013-07-25 10:23:00,
2013-07-25 05:24:00,52.9,51.5,28.82,SSW,202,0.0,0.0,95,0.00,CLR,,0.00,WeatherDisplay:10.37,2013-07-25 10:24:00,
2013-07-25 05:25:00,52.9,51.5,28.82,SSW,202,0.0,0.0,95,0.00,CLR,,0.00,WeatherDisplay:10.37,2013-07-25 10:25:00,
2013-07-25 05:28:00,52.9,51.5,28.82,SSW,202,0.0,0.0,95,0.00,CLR,,0.00,WeatherDisplay:10.37,2013-07-25 10:28:00,
2013-07-25 05:29:00,52.9,51.5,28.82,SSW,202,0.0,0.0,95,0.00,CLR,,0.00,WeatherDisplay:10.37,2013-07-25 10:29:00,
2013-07-25 05:30:00,52.8,51.4,28.82,SSW,202,0.0,0.0,95,0.00,CLR,,0.00,WeatherDisplay:10.37,2013-07-25 10:30:00,
2013-07-25 05:33:00,52.5,51.1,28.82,SSW,202,0.0,0.0,95,0.00,CLR,,0.00,WeatherDisplay:10.37,2013-07-25 10:33:00,
2013-07-25 05:34:00,52.5,51.1,28.82,SSW,202,0.0,0.0,95,0.00,CLR,,0.00,WeatherDisplay:10.37,2013-07-25 10:34:00,
2013-07-25 05:35:00,52.5,51.1,28.82,SSW,202,0.0,0.0,95,0.00,CLR,,0.00,WeatherDisplay:10.37,2013-07-25 10:35:00,
2013-07-25 05:38:00,52.3,51.0,28.82,SSW,202,0.0,0.0,95,0.00,CLR,,0.00,WeatherDisplay:10.37,2013-07-25 10:38:00,
2013-07-25 05:39:00,52.3,51.0,28.82,SSW,202,0.0,0.0,95,0.00,CLR,,0.00,WeatherDisplay:10.37,2013-07-25 10:39:00,
2013-07-25 05:40:00,52.3,51.0,28.82,SSW,202,0.0,0.0,95,0.00,CLR,,0.00,WeatherDisplay:10.37,2013-07-25 10:40:00,
2013-07-25 05:44:00,52.3,51.0,28.82,SSE,158,0.0,0.0,95,0.00,CLR,,0.00,WeatherDisplay:10.37,2013-07-25 10:44:00,
2013-07-25 05:45:00,52.5,51.1,28.82,SSE,158,0.0,0.0,95,0.00,CLR,,0.00,WeatherDisplay:10.37,2013-07-25 10:45:00,
2013-07-25 05:46:00,52.5,51.1,28.82,SSE,158,0.0,0.0,95,0.00,CLR,,0.00,WeatherDisplay:10.37,2013-07-25 10:46:00,
2013-07-25 05:49:00,52.5,51.4,28.82,ESE,112,1.2,0.0,96,0.00,CLR,,0.00,WeatherDisplay:10.37,2013-07-25 10:49:00,
2013-07-25 05:50:00,52.5,51.4,28.82,ESE,112,0.0,0.0,96,0.00,CLR,,0.00,WeatherDisplay:10.37,2013-07-25 10:50:00,
2013-07-25 05:52:00,52.5,51.4,28.82,ESE,112,0.0,0.0,96,0.00,CLR,,0.00,WeatherDisplay:10.37,2013-07-25 10:52:00,
2013-07-25 05:54:00,52.5,51.4,28.82,ESE,112,0.0,0.0,96,0.00,CLR,,0.00,WeatherDisplay:10.37,2013-07-25 10:54:00,
2013-07-25 05:55:00,52.5,51.4,28.82,ESE,112,0.0,0.0,96,0.00,CLR,,0.00,WeatherDisplay:10.37,2013-07-25 10:55:00,
2013-07-25 05:57:00,52.5,51.4,28.82,ESE,112,0.0,0.0,96,0.00,CLR,,0.00,WeatherDisplay:10.37,2013-07-25 10:57:00,
2013-07-25 05:59:00,52.5,51.4,28.82,ESE,112,0.0,0.0,96,0.00,CLR,,0.00,WeatherDisplay:10.37,2013-07-25 10:59:00,
2013-07-25 06:00:00,52.5,51.4,28.82,ESE,112,0.0,0.0,96,0.00,CLR,,0.00,WeatherDisplay:10.37,2013-07-25 11:00:00,
2013-07-25 06:01:00,52.5,51.4,28.82,ESE,112,0.0,0.0,96,0.00,CLR,,0.00,WeatherDisplay:10.37,2013-07-25 11:01:00,
2013-07-25 06:02:00,52.5,51.4,28.82,ESE,112,0.0,0.0,96,0.00,CLR,,0.00,WeatherDisplay:10.37,2013-07-25 11:02:00,
2013-07-25 06:04:00,52.5,51.4,28.82,ESE,112,0.0,0.0,96,0.00,CLR,,0.00,WeatherDisplay:10.37,2013-07-25 11:04:00,
2013-07-25 06:05:00,52.5,51.4,28.82,ESE,112,0.0,0.0,96,0.00,CLR,,0.00,WeatherDisplay:10.37,2013-07-25 11:05:00,
2013-07-25 06:06:00,52.7,51.6,28.82,ESE,112,0.0,0.0,96,0.00,CLR,,0.00,WeatherDisplay:10.37,2013-07-25 11:06:00,
2013-07-25 06:07:00,52.7,51.6,28.82,ESE,112,0.0,0.0,96,0.00,CLR,,0.00,WeatherDisplay:10.37,2013-07-25 11:07:00,
2013-07-25 06:09:00,52.7,51.6,28.82,ESE,112,0.0,0.0,96,0.00,CLR,,0.00,WeatherDisplay:10.37,2013-07-25 11:09:00,
2013-07-25 06:10:00,52.9,51.8,28.82,ESE,112,0.0,0.0,96,0.00,CLR,,0.00,WeatherDisplay:10.37,2013-07-25 11:10:00,
2013-07-25 06:12:00,53.2,52.1,28.82,ESE,112,0.0,0.0,96,0.00,CLR,,0.00,WeatherDisplay:10.37,2013-07-25 11:12:00,
2013-07-25 06:13:00,53.4,52.3,28.82,ESE,112,0.0,0.0,96,0.00,CLR,,0.00,WeatherDisplay:10.37,2013-07-25 11:13:00,
2013-07-25 06:15:00,53.8,52.7,28.82,ESE,112,0.0,0.0,96,0.00,CLR,,0.00,WeatherDisplay:10.37,2013-07-25 11:15:00,
2013-07-25 06:17:00,54.5,53.7,28.82,ESE,112,0.0,0.0,97,0.00,CLR,,0.00,WeatherDisplay:10.37,2013-07-25 11:17:00,
2013-07-25 06:18:00,54.7,53.8,28.82,ESE,112,0.0,0.0,97,0.00,CLR,,0.00,WeatherDisplay:10.37,2013-07-25 11:18:00,
2013-07-25 06:20:00,54.9,54.0,28.82,ESE,112,0.0,0.0,97,0.00,CLR,,0.00,WeatherDisplay:10.37,2013-07-25 11:20:00,
2013-07-25 06:21:00,55.2,54.4,28.82,ESE,112,0.0,0.0,97,0.00,CLR,,0.00,WeatherDisplay:10.37,2013-07-25 11:21:00,
2013-07-25 06:22:00,55.8,54.9,28.82,ESE,112,0.0,0.0,97,0.00,CLR,,0.00,WeatherDisplay:10.37,2013-07-25 11:22:00,
2013-07-25 06:23:00,55.8,54.9,28.82,ESE,112,0.0,0.0,97,0.00,CLR,,0.00,WeatherDisplay:10.37,2013-07-25 11:23:00,
2013-07-25 06:25:00,55.9,55.1,28.82,ESE,112,0.0,0.0,97,0.00,CLR,,0.00,WeatherDisplay:10.37,2013-07-25 11:25:00,
2013-07-25 06:27:00,56.3,55.2,28.82,ESE,112,0.0,0.0,96,0.00,CLR,,0.00,WeatherDisplay:10.37,2013-07-25 11:27:00,
2013-07-25 06:28:00,56.5,55.4,28.82,ESE,112,0.0,0.0,96,0.00,CLR,,0.00,WeatherDisplay:10.37,2013-07-25 11:28:00,
2013-07-25 06:30:00,56.8,55.7,28.82,ESE,112,0.0,0.0,96,0.00,CLR,,0.00,WeatherDisplay:10.37,2013-07-25 11:30:00,
2013-07-25 06:33:00,57.0,55.9,28.82,ESE,112,0.0,0.0,96,0.00,CLR,,0.00,WeatherDisplay:10.37,2013-07-25 11:33:00,
2013-07-25 06:35:00,57.6,56.1,28.82,ESE,112,0.0,0.0,95,0.00,CLR,,0.00,WeatherDisplay:10.37,2013-07-25 11:35:00,
2013-07-25 06:38:00,58.1,56.4,28.82,ESE,112,0.0,0.0,94,0.00,CLR,,0.00,WeatherDisplay:10.37,2013-07-25 11:38:00,
2013-07-25 06:39:00,58.3,56.6,28.82,ESE,112,0.0,0.0,94,0.00,CLR,,0.00,WeatherDisplay:10.37,2013-07-25 11:39:00,
2013-07-25 06:40:00,58.5,56.7,28.82,ESE,112,0.0,0.0,94,0.00,CLR,,0.00,WeatherDisplay:10.37,2013-07-25 11:40:00,
2013-07-25 06:43:00,59.0,57.0,28.82,ESE,112,0.0,0.0,93,0.00,CLR,,0.00,WeatherDisplay:10.37,2013-07-25 11:43:00,
2013-07-25 06:44:00,59.0,57.0,28.82,ESE,112,0.0,0.0,93,0.00,CLR,,0.00,WeatherDisplay:10.37,2013-07-25 11:44:00,
2013-07-25 06:45:00,59.4,57.3,28.82,ESE,112,0.0,0.0,93,0.00,CLR,,0.00,WeatherDisplay:10.37,2013-07-25 11:45:00,
2013-07-25 06:48:00,60.1,58.0,28.82,ESE,112,0.0,0.0,93,0.00,CLR,,0.00,WeatherDisplay:10.37,2013-07-25 11:48:00,
2013-07-25 06:49:00,60.1,58.0,28.82,ESE,112,0.0,0.0,93,0.00,CLR,,0.00,WeatherDisplay:10.37,2013-07-25 11:49:00,
2013-07-25 06:50:00,60.3,57.9,28.82,ESE,112,0.0,0.0,92,0.00,CLR,,0.00,WeatherDisplay:10.37,2013-07-25 11:50:00,
2013-07-25 06:53:00,60.4,57.2,28.82,ESE,112,0.0,0.0,89,0.00,CLR,,0.00,WeatherDisplay:10.37,2013-07-25 11:53:00,
2013-07-25 06:54:00,60.4,57.2,28.82,East,90,0.0,0.0,89,0.00,CLR,,0.00,WeatherDisplay:10.37,2013-07-25 11:54:00,
2013-07-25 06:55:00,60.4,57.8,28.82,ENE,68,2.3,2.3,91,0.00,CLR,,0.00,WeatherDisplay:10.37,2013-07-25 11:55:00,
2013-07-25 06:58:00,60.8,57.5,28.82,East,90,2.3,2.3,89,0.00,CLR,,0.00,WeatherDisplay:10.37,2013-07-25 11:58:00,
2013-07-25 06:59:00,60.8,57.5,28.82,East,90,2.3,0.0,89,0.00,CLR,,0.00,WeatherDisplay:10.37,2013-07-25 11:59:00,
2013-07-25 07:00:00,61.0,57.7,28.82,East,90,2.3,0.0,89,0.00,CLR,,0.00,WeatherDisplay:10.37,2013-07-25 12:00:00,
2013-07-25 07:01:00,61.0,57.4,28.82,East,90,3.5,3.5,88,0.00,CLR,,0.00,WeatherDisplay:10.37,2013-07-25 12:01:00,
2013-07-25 07:03:00,61.3,57.4,28.82,East,90,0.0,0.0,87,0.00,CLR,,0.00,WeatherDisplay:10.37,2013-07-25 12:03:00,
2013-07-25 07:04:00,61.7,57.8,28.82,East,90,1.2,0.0,87,0.00,CLR,,0.00,WeatherDisplay:10.37,2013-07-25 12:04:00,
2013-07-25 07:05:00,61.9,58.0,28.82,ENE,68,0.0,0.0,87,0.00,CLR,,0.00,WeatherDisplay:10.37,2013-07-25 12:05:00,
2013-07-25 07:06:00,61.9,58.0,28.82,East,90,0.0,0.0,87,0.00,CLR,,0.00,WeatherDisplay:10.37,2013-07-25 12:06:00,
2013-07-25 07:09:00,62.6,58.0,28.82,ENE,68,0.0,0.0,85,0.00,CLR,,0.00,WeatherDisplay:10.37,2013-07-25 12:09:00,
2013-07-25 07:10:00,62.6,58.0,28.82,ENE,68,0.0,0.0,85,0.00,CLR,,0.00,WeatherDisplay:10.37,2013-07-25 12:10:00,
2013-07-25 07:11:00,63.0,58.4,28.82,ENE,68,0.0,0.0,85,0.00,CLR,,0.00,WeatherDisplay:10.37,2013-07-25 12:11:00,
2013-07-25 07:14:00,64.0,59.4,28.82,ENE,68,0.0,0.0,85,0.00,CLR,,0.00,WeatherDisplay:10.37,2013-07-25 12:14:00,
2013-07-25 07:15:00,64.2,59.3,28.82,ENE,68,0.0,0.0,84,0.00,CLR,,0.00,WeatherDisplay:10.37,2013-07-25 12:15:00,
2013-07-25 07:16:00,64.2,59.3,28.82,ENE,68,0.0,0.0,84,0.00,CLR,,0.00,WeatherDisplay:10.37,2013-07-25 12:16:00,
2013-07-25 07:19:00,65.3,60.0,28.82,ENE,68,0.0,0.0,83,0.00,CLR,,0.00,WeatherDisplay:10.37,2013-07-25 12:19:00,
2013-07-25 07:20:00,65.7,60.4,28.82,ENE,68,0.0,0.0,83,0.00,CLR,,0.00,WeatherDisplay:10.37,2013-07-25 12:20:00,
2013-07-25 07:21:00,65.8,60.2,28.82,ENE,68,0.0,0.0,82,0.00,CLR,,0.00,WeatherDisplay:10.37,2013-07-25 12:21:00,
2013-07-25 07:22:00,66.2,60.2,28.82,South,180,0.0,0.0,81,0.00,CLR,,0.00,WeatherDisplay:10.37,2013-07-25 12:22:00,
2013-07-25 07:24:00,66.0,60.0,28.82,East,90,1.2,0.0,81,0.00,CLR,,0.00,WeatherDisplay:10.37,2013-07-25 12:24:00,
2013-07-25 07:25:00,66.0,60.0,28.82,ESE,112,0.0,0.0,81,0.00,CLR,,0.00,WeatherDisplay:10.37,2013-07-25 12:25:00,
2013-07-25 07:26:00,66.0,60.0,28.82,ESE,112,0.0,0.0,81,0.00,CLR,,0.00,WeatherDisplay:10.37,2013-07-25 12:26:00,
2013-07-25 07:28:00,66.4,59.3,28.82,SSE,158,0.0,0.0,78,0.00,CLR,,0.00,WeatherDisplay:10.37,2013-07-25 12:28:00,
2013-07-25 07:30:00,66.0,58.2,28.82,SSE,158,5.9,5.9,76,0.00,CLR,,0.00,WeatherDisplay:10.37,2013-07-25 12:30:00,
2013-07-25 07:31:00,66.0,57.9,28.82,SSE,158,5.8,5.8,75,0.00,CLR,,0.00,WeatherDisplay:10.37,2013-07-25 12:31:00,
2013-07-25 07:32:00,66.0,57.9,28.82,SE,135,3.5,3.5,75,0.00,CLR,,0.00,WeatherDisplay:10.37,2013-07-25 12:32:00,
2013-07-25 07:33:00,66.2,57.7,28.82,SSE,158,5.9,5.9,74,0.00,CLR,,0.00,WeatherDisplay:10.37,2013-07-25 12:33:00,
2013-07-25 07:35:00,66.0,57.1,28.82,ESE,112,5.8,5.8,73,0.00,CLR,,0.00,WeatherDisplay:10.37,2013-07-25 12:35:00,
2013-07-25 07:37:00,66.4,57.8,28.82,SSE,158,3.5,3.5,74,0.00,CLR,,0.00,WeatherDisplay:10.37,2013-07-25 12:37:00,
2013-07-25 07:38:00,66.6,57.3,28.82,SSE,158,4.7,4.7,72,0.00,CLR,,0.00,WeatherDisplay:10.37,2013-07-25 12:38:00,
2013-07-25 07:41:00,66.6,57.3,28.82,SSE,158,6.9,6.9,72,0.00,CLR,,0.00,WeatherDisplay:10.37,2013-07-25 12:41:00,
2013-07-25 07:42:00,66.7,57.4,28.82,SSE,158,4.6,4.6,72,0.00,CLR,,0.00,WeatherDisplay:10.37,2013-07-25 12:42:00,
2013-07-25 07:43:00,66.7,57.4,28.82,South,180,4.6,4.6,72,0.00,CLR,,0.00,WeatherDisplay:10.37,2013-07-25 12:43:00,
2013-07-25 07:46:00,67.3,57.9,28.82,SSE,158,5.8,5.8,72,0.00,CLR,,0.00,WeatherDisplay:10.37,2013-07-25 12:46:00,
2013-07-25 07:47:00,67.5,57.7,28.82,South,180,5.8,5.8,71,0.00,CLR,,0.00,WeatherDisplay:10.37,2013-07-25 12:47:00,
2013-07-25 07:48:00,67.5,57.7,28.82,SSE,158,6.9,6.9,71,0.00,CLR,,0.00,WeatherDisplay:10.37,2013-07-25 12:48:00,
2013-07-25 07:52:00,69.1,59.3,28.82,NNW,338,3.5,3.5,71,0.00,CLR,,0.00,WeatherDisplay:10.37,2013-07-25 12:52:00,
2013-07-25 07:53:00,69.4,59.2,28.82,South,180,2.9,2.9,70,0.00,CLR,,0.00,WeatherDisplay:10.37,2013-07-25 12:53:00,
2013-07-25 07:57:00,69.8,58.3,28.85,SSE,158,5.8,5.8,67,0.00,CLR,,0.00,WeatherDisplay:10.37,2013-07-25 12:57:00,
2013-07-25 07:58:00,69.3,57.8,28.85,SSW,202,5.8,5.8,67,0.00,CLR,,0.00,WeatherDisplay:10.37,2013-07-25 12:58:00,
2013-07-25 08:00:00,68.7,57.3,28.85,South,180,5.8,5.8,67,0.00,CLR,,0.00,WeatherDisplay:10.37,2013-07-25 13:00:00,
2013-07-25 08:02:00,68.5,57.6,28.85,SW,225,5.8,5.8,68,0.00,CLR,,0.00,WeatherDisplay:10.37,2013-07-25 13:02:00,
2013-07-25 08:03:00,68.5,58.0,28.85,NE,45,5.8,5.8,69,0.00,CLR,,0.00,WeatherDisplay:10.37,2013-07-25 13:03:00,
2013-07-25 08:04:00,68.9,58.3,28.85,WSW,248,3.5,3.5,69,0.00,CLR,,0.00,WeatherDisplay:10.37,2013-07-25 13:04:00,
2013-07-25 08:05:00,69.4,58.8,28.85,WSW,248,3.1,3.1,69,0.00,CLR,,0.00,WeatherDisplay:10.37,2013-07-25 13:05:00,
2013-07-25 08:07:00,70.2,59.1,28.85,South,180,3.6,3.6,68,0.00,CLR,,0.00,WeatherDisplay:10.37,2013-07-25 13:07:00,
2013-07-25 08:08:00,70.2,59.1,28.85,South,180,3.5,3.5,68,0.00,CLR,,0.00,WeatherDisplay:10.37,2013-07-25 13:08:00,
2013-07-25 08:09:00,70.2,58.7,28.85,WSW,248,3.5,3.5,67,0.00,CLR,,0.00,WeatherDisplay:10.37,2013-07-25 13:09:00,
2013-07-25 08:10:00,70.0,58.5,28.85,SW,225,3.5,3.5,67,0.00,CLR,,0.00,WeatherDisplay:10.37,2013-07-25 13:10:00,
2013-07-25 08:13:00,70.0,58.5,28.85,South,180,2.3,2.3,67,0.00,CLR,,0.00,WeatherDisplay:10.37,2013-07-25 13:13:00,
2013-07-25 08:15:00,69.4,57.6,28.85,SSW,202,2.3,2.6,66,0.00,CLR,,0.00,WeatherDisplay:10.37,2013-07-25 13:15:00,
2013-07-25 08:16:00,69.4,57.6,28.85,WSW,248,2.3,2.3,66,0.00,CLR,,0.00,WeatherDisplay:10.37,2013-07-25 13:16:00,
2013-07-25 08:18:00,69.3,57.0,28.85,SSE,158,3.5,3.5,65,0.00,CLR,,0.00,WeatherDisplay:10.37,2013-07-25 13:18:00,
2013-07-25 08:20:00,68.9,57.1,28.85,SSE,158,1.2,1.2,66,0.00,CLR,,0.00,WeatherDisplay:10.37,2013-07-25 13:20:00,
2013-07-25 08:22:00,69.1,57.2,28.85,SW,225,2.3,0.0,66,0.00,CLR,,0.00,WeatherDisplay:10.37,2013-07-25 13:22:00,
2013-07-25 08:23:00,69.1,57.7,28.85,West,270,2.3,2.3,67,0.00,CLR,,0.00,WeatherDisplay:10.37,2013-07-25 13:23:00,
2013-07-25 08:25:00,68.9,57.1,28.85,SSW,202,4.3,4.3,66,0.00,CLR,,0.00,WeatherDisplay:10.37,2013-07-25 13:25:00,
2013-07-25 08:27:00,68.7,56.9,28.85,SW,225,3.5,3.5,66,0.00,CLR,,0.00,WeatherDisplay:10.37,2013-07-25 13:27:00,
2013-07-25 08:28:00,68.7,56.9,28.85,South,180,3.5,3.5,66,0.00,CLR,,0.00,WeatherDisplay:10.37,2013-07-25 13:28:00,
2013-07-25 08:29:00,68.7,57.3,28.85,West,270,3.5,3.5,67,0.00,CLR,,0.00,WeatherDisplay:10.37,2013-07-25 13:29:00,
2013-07-25 08:30:00,68.5,56.7,28.85,West,270,3.5,3.5,66,0.00,CLR,,0.00,WeatherDisplay:10.37,2013-07-25 13:30:00,
2013-07-25 08:33:00,68.5,56.7,28.85,North,0,2.4,2.4,66,0.00,CLR,,0.00,WeatherDisplay:10.37,2013-07-25 13:33:00,
2013-07-25 08:34:00,68.4,56.6,28.85,WSW,248,2.3,2.3,66,0.00,CLR,,0.00,WeatherDisplay:10.37,2013-07-25 13:34:00,
2013-07-25 08:35:00,68.5,57.1,28.85,SSW,202,1.2,1.2,67,0.00,CLR,,0.00,WeatherDisplay:10.37,2013-07-25 13:35:00,
2013-07-25 08:38:00,68.9,57.5,28.85,West,270,1.2,0.0,67,0.00,CLR,,0.00,WeatherDisplay:10.37,2013-07-25 13:38:00,
2013-07-25 08:39:00,69.1,57.7,28.85,NNW,338,1.2,0.0,67,0.00,CLR,,0.00,WeatherDisplay:10.37,2013-07-25 13:39:00,
2013-07-25 08:41:00,69.4,58.4,28.85,WSW,248,2.3,2.3,68,0.00,CLR,,0.00,WeatherDisplay:10.37,2013-07-25 13:41:00,
2013-07-25 08:43:00,70.2,58.7,28.85,SW,225,1.2,0.0,67,0.00,CLR,,0.00,WeatherDisplay:10.37,2013-07-25 13:43:00,
2013-07-25 08:44:00,70.3,58.4,28.85,West,270,2.6,0.0,66,0.00,CLR,,0.00,WeatherDisplay:10.37,2013-07-25 13:44:00,
2013-07-25 08:46:00,70.0,57.7,28.85,ESE,112,3.5,3.5,65,0.00,CLR,,0.00,WeatherDisplay:10.37,2013-07-25 13:46:00,
2013-07-25 08:49:00,69.6,56.9,28.85,SSW,202,4.6,4.6,64,0.00,CLR,,0.00,WeatherDisplay:10.37,2013-07-25 13:49:00,
2013-07-25 08:52:00,69.6,57.3,28.85,South,180,2.3,2.3,65,0.00,CLR,,0.00,WeatherDisplay:10.37,2013-07-25 13:52:00,
2013-07-25 08:54:00,69.6,57.3,28.85,West,270,2.3,2.3,65,0.00,CLR,,0.00,WeatherDisplay:10.37,2013-07-25 13:54:00,
2013-07-25 08:55:00,69.8,57.5,28.85,WSW,248,2.3,2.3,65,0.00,CLR,,0.00,WeatherDisplay:10.37,2013-07-25 13:55:00,
2013-07-25 08:57:00,69.6,56.9,28.85,SE,135,4.0,4.0,64,0.00,CLR,,0.00,WeatherDisplay:10.37,2013-07-25 13:57:00,
2013-07-25 08:59:00,69.4,57.2,28.85,North,0,3.5,3.5,65,0.00,CLR,,0.00,WeatherDisplay:10.37,2013-07-25 13:59:00,
2013-07-25 09:00:00,69.4,57.2,28.85,SW,226,2.0,5.0,65,0.00,CLR,,0.00,WeatherDisplay:10.37,2013-07-25 14:00:00,
2013-07-25 09:02:00,69.3,56.6,28.85,West,270,3.5,3.5,64,0.00,CLR,,0.00,WeatherDisplay:10.37,2013-07-25 14:02:00,
2013-07-25 09:04:00,69.3,56.6,28.85,South,180,5.8,5.8,64,0.00,CLR,,0.00,WeatherDisplay:10.37,2013-07-25 14:04:00,
2013-07-25 09:05:00,69.3,57.0,28.85,NNW,338,5.8,5.8,65,0.00,CLR,,0.00,WeatherDisplay:10.37,2013-07-25 14:05:00,
2013-07-25 09:08:00,69.6,57.8,28.85,SW,225,2.3,2.3,66,0.00,CLR,,0.00,WeatherDisplay:10.37,2013-07-25 14:08:00,
2013-07-25 09:09:00,69.4,57.2,28.85,SSW,202,4.3,4.3,65,0.00,CLR,,0.00,WeatherDisplay:10.37,2013-07-25 14:09:00,
2013-07-25 09:10:00,69.4,57.2,28.85,SSW,202,4.6,4.6,65,0.00,CLR,,0.00,WeatherDisplay:10.37,2013-07-25 14:10:00,
2013-07-25 09:13:00,69.8,57.5,28.85,SSW,202,2.3,0.0,65,0.00,CLR,,0.00,WeatherDisplay:10.37,2013-07-25 14:13:00,
2013-07-25 09:14:00,70.0,57.7,28.85,West,270,3.6,3.6,65,0.00,CLR,,0.00,WeatherDisplay:10.37,2013-07-25 14:14:00,
2013-07-25 09:15:00,70.0,57.7,28.85,West,270,3.6,3.6,65,0.00,CLR,,0.00,WeatherDisplay:10.37,2013-07-25 14:15:00,
2013-07-25 09:16:00,70.0,57.7,28.85,SSW,202,3.5,3.5,65,0.00,CLR,,0.00,WeatherDisplay:10.37,2013-07-25 14:16:00,
2013-07-25 09:18:00,70.2,58.3,28.85,WNW,292,2.3,0.0,66,0.00,CLR,,0.00,WeatherDisplay:10.37,2013-07-25 14:18:00,
2013-07-25 09:20:00,70.3,58.4,28.85,SW,219,0.0,4.0,66,0.00,CLR,,0.00,WeatherDisplay:10.37,2013-07-25 14:20:00,
2013-07-25 09:21:00,70.2,58.3,28.85,SSE,158,2.3,2.3,66,0.00,CLR,,0.00,WeatherDisplay:10.37,2013-07-25 14:21:00,
2013-07-25 09:23:00,70.2,57.8,28.85,SW,225,3.5,3.5,65,0.00,CLR,,0.00,WeatherDisplay:10.37,2013-07-25 14:23:00,
2013-07-25 09:25:00,70.0,57.7,28.82,SSW,202,3.5,3.5,65,0.00,CLR,,0.00,WeatherDisplay:10.37,2013-07-25 14:25:00,
2013-07-25 09:27:00,69.8,57.5,28.82,SW,225,2.3,2.3,65,0.00,CLR,,0.00,WeatherDisplay:10.37,2013-07-25 14:27:00,
2013-07-25 09:28:00,69.8,57.5,28.82,SW,225,2.3,2.3,65,0.00,CLR,,0.00,WeatherDisplay:10.37,2013-07-25 14:28:00,
2013-07-25 09:30:00,69.9,58.0,28.82,SSW,213,0.0,4.0,66,0.00,CLR,,0.00,WeatherDisplay:10.37,2013-07-25 14:30:00,
2013-07-25 09:33:00,69.6,58.2,28.82,SW,225,2.2,0.0,67,0.00,CLR,,0.00,WeatherDisplay:10.37,2013-07-25 14:33:00,
2013-07-25 09:34:00,69.8,58.3,28.82,SSW,202,1.2,1.6,67,0.00,CLR,,0.00,WeatherDisplay:10.37,2013-07-25 14:34:00,
2013-07-25 09:35:00,69.6,58.2,28.82,South,180,4.0,4.0,67,0.00,CLR,,0.00,WeatherDisplay:10.37,2013-07-25 14:35:00,
2013-07-25 09:38:00,69.8,58.3,28.82,West,270,1.2,0.0,67,0.00,CLR,,0.00,WeatherDisplay:10.37,2013-07-25 14:38:00,
2013-07-25 09:39:00,70.0,58.1,28.82,SSE,158,2.3,2.3,66,0.00,CLR,,0.00,WeatherDisplay:10.37,2013-07-25 14:39:00,
2013-07-25 09:40:00,70.0,58.1,28.82,East,90,2.6,0.0,66,0.00,CLR,,0.00,WeatherDisplay:10.37,2013-07-25 14:40:00,
2013-07-25 09:43:00,69.8,57.9,28.82,NNW,338,3.5,3.5,66,0.00,CLR,,0.00,WeatherDisplay:10.37,2013-07-25 14:43:00,
2013-07-25 09:44:00,69.8,57.5,28.82,WSW,248,3.5,3.5,65,0.00,CLR,,0.00,WeatherDisplay:10.37,2013-07-25 14:44:00,
2013-07-25 09:45:00,69.8,57.5,28.82,WSW,248,4.6,4.6,65,0.00,CLR,,0.00,WeatherDisplay:10.37,2013-07-25 14:45:00,
2013-07-25 09:47:00,69.6,57.8,28.82,SW,225,2.3,3.1,66,0.00,CLR,,0.00,WeatherDisplay:10.37,2013-07-25 14:47:00,
2013-07-25 09:49:00,69.8,57.9,28.82,SSW,202,3.5,3.5,66,0.00,CLR,,0.00,WeatherDisplay:10.37,2013-07-25 14:49:00,
2013-07-25 09:50:00,69.8,57.9,28.82,SSW,202,3.5,3.5,66,0.00,CLR,,0.00,WeatherDisplay:10.37,2013-07-25 14:50:00,
2013-07-25 09:52:00,69.8,57.9,28.82,SW,225,3.5,3.5,66,0.00,CLR,,0.00,WeatherDisplay:10.37,2013-07-25 14:52:00,
2013-07-25 09:54:00,71.2,58.9,28.82,SSE,158,2.3,2.3,65,0.00,CLR,,0.00,WeatherDisplay:10.37,2013-07-25 14:54:00,
2013-07-25 09:55:00,71.4,59.5,28.82,South,180,5.9,5.9,66,0.00,CLR,,0.00,WeatherDisplay:10.37,2013-07-25 14:55:00,
2013-07-25 09:57:00,71.6,59.2,28.82,WSW,248,5.4,5.4,65,0.00,CLR,,0.00,WeatherDisplay:10.37,2013-07-25 14:57:00,
2013-07-25 09:58:00,71.6,59.2,28.82,WSW,248,5.8,5.8,65,0.00,CLR,,0.00,WeatherDisplay:10.37,2013-07-25 14:58:00,
2013-07-25 09:59:00,71.6,59.2,28.82,NW,315,5.8,5.8,65,0.00,CLR,,0.00,WeatherDisplay:10.37,2013-07-25 14:59:00,
2013-07-25 10:00:00,71.6,59.2,28.82,WSW,248,2.3,2.3,65,0.00,CLR,,0.00,WeatherDisplay:10.37,2013-07-25 15:00:00,
2013-07-25 10:03:00,71.6,59.2,28.82,West,270,2.3,2.3,65,0.00,CLR,,0.00,WeatherDisplay:10.37,2013-07-25 15:03:00,
2013-07-25 10:04:00,71.6,58.8,28.82,West,270,2.3,2.3,64,0.00,CLR,,0.00,WeatherDisplay:10.37,2013-07-25 15:04:00,
2013-07-25 10:05:00,71.6,58.8,28.82,WSW,248,2.3,2.3,64,0.00,CLR,,0.00,WeatherDisplay:10.37,2013-07-25 15:05:00,
2013-07-25 10:08:00,71.6,58.3,28.82,SW,225,4.6,4.6,63,0.00,CLR,,0.00,WeatherDisplay:10.37,2013-07-25 15:08:00,
2013-07-25 10:09:00,71.1,57.4,28.82,SW,225,6.9,6.9,62,0.00,CLR,,0.00,WeatherDisplay:10.37,2013-07-25 15:09:00,
2013-07-25 10:10:00,71.1,57.4,28.82,ESE,112,6.9,6.9,62,0.00,CLR,,0.00,WeatherDisplay:10.37,2013-07-25 15:10:00,
2013-07-25 10:13:00,70.7,57.0,28.82,East,90,4.6,4.6,62,0.00,CLR,,0.00,WeatherDisplay:10.37,2013-07-25 15:13:00,
2013-07-25 10:14:00,70.7,57.0,28.82,WSW,248,3.5,3.5,62,0.00,CLR,,0.00,WeatherDisplay:10.37,2013-07-25 15:14:00,
2013-07-25 10:15:00,70.7,57.0,28.82,South,180,3.8,3.8,62,0.00,CLR,,0.00,WeatherDisplay:10.37,2013-07-25 15:15:00,
2013-07-25 10:18:00,70.5,57.3,28.82,South,180,3.5,3.5,63,0.00,CLR,,0.00,WeatherDisplay:10.37,2013-07-25 15:18:00,
2013-07-25 10:19:00,70.5,57.3,28.82,SSW,202,6.9,6.9,63,0.00,CLR,,0.00,WeatherDisplay:10.37,2013-07-25 15:19:00,
2013-07-25 10:20:00,70.5,57.3,28.82,South,180,5.8,5.8,63,0.00,CLR,,0.00,WeatherDisplay:10.37,2013-07-25 15:20:00,
2013-07-25 10:21:00,70.5,57.3,28.82,WSW,248,5.8,5.8,63,0.00,CLR,,0.00,WeatherDisplay:10.37,2013-07-25 15:21:00,
2013-07-25 10:23:00,70.9,58.1,28.82,West,270,3.5,3.5,64,0.00,CLR,,0.00,WeatherDisplay:10.37,2013-07-25 15:23:00,
2013-07-25 10:24:00,70.9,58.1,28.82,SSW,202,2.3,0.0,64,0.00,CLR,,0.00,WeatherDisplay:10.37,2013-07-25 15:24:00,
2013-07-25 10:25:00,70.9,58.1,28.82,West,270,5.8,0.0,64,0.00,CLR,,0.00,WeatherDisplay:10.37,2013-07-25 15:25:00,
2013-07-25 10:26:00,70.7,57.5,28.82,SSW,202,5.8,5.8,63,0.00,CLR,,0.00,WeatherDisplay:10.37,2013-07-25 15:26:00,
2013-07-25 10:28:00,70.5,57.3,28.82,WSW,248,4.6,4.6,63,0.00,CLR,,0.00,WeatherDisplay:10.37,2013-07-25 15:28:00,
2013-07-25 10:29:00,70.3,57.6,28.82,NNE,22,6.9,6.9,64,0.00,CLR,,0.00,WeatherDisplay:10.37,2013-07-25 15:29:00,
2013-07-25 10:30:00,70.3,57.6,28.82,SE,135,4.6,4.6,64,0.00,CLR,,0.00,WeatherDisplay:10.37,2013-07-25 15:30:00,
2013-07-25 10:31:00,70.5,57.8,28.82,SW,225,4.7,4.7,64,0.00,CLR,,0.00,WeatherDisplay:10.37,2013-07-25 15:31:00,
2013-07-25 10:33:00,70.7,58.4,28.82,SW,225,3.5,3.5,65,0.00,CLR,,0.00,WeatherDisplay:10.37,2013-07-25 15:33:00,
2013-07-25 10:35:00,70.5,57.3,28.82,West,270,2.4,3.3,63,0.00,CLR,,0.00,WeatherDisplay:10.37,2013-07-25 15:35:00,
2013-07-25 10:36:00,70.7,57.9,28.82,WSW,248,5.6,5.6,64,0.00,CLR,,0.00,WeatherDisplay:10.37,2013-07-25 15:36:00,
2013-07-25 10:39:00,71.8,58.5,28.82,NW,315,2.3,2.4,63,0.00,CLR,,0.00,WeatherDisplay:10.37,2013-07-25 15:39:00,
2013-07-25 10:40:00,71.8,58.5,28.85,WSW,248,1.4,1.4,63,0.00,CLR,,0.00,WeatherDisplay:10.37,2013-07-25 15:40:00,
2013-07-25 10:41:00,72.1,58.8,28.85,SW,225,3.5,3.5,63,0.00,CLR,,0.00,WeatherDisplay:10.37,2013-07-25 15:41:00,
2013-07-25 10:44:00,73.2,59.4,28.85,SSW,202,2.9,2.9,62,0.00,CLR,,0.00,WeatherDisplay:10.37,2013-07-25 15:44:00,
2013-07-25 10:45:00,73.6,59.3,28.85,SSW,202,5.8,5.8,61,0.00,CLR,,0.00,WeatherDisplay:10.37,2013-07-25 15:45:00,
2013-07-25 10:46:00,74.1,60.3,28.85,WSW,248,2.3,3.1,62,0.00,CLR,,0.00,WeatherDisplay:10.37,2013-07-25 15:46:00,
2013-07-25 10:47:00,75.0,61.1,28.85,SSE,158,2.3,2.3,62,0.00,CLR,,0.00,WeatherDisplay:10.37,2013-07-25 15:47:00,
2013-07-25 10:49:00,75.6,60.7,28.85,West,270,3.5,3.5,60,0.00,CLR,,0.00,WeatherDisplay:10.37,2013-07-25 15:49:00,
2013-07-25 10:50:00,75.6,60.2,28.85,SSW,202,3.5,3.5,59,0.00,CLR,,0.00,WeatherDisplay:10.37,2013-07-25 15:50:00,
2013-07-25 10:51:00,75.6,60.2,28.85,SSW,202,3.5,3.5,59,0.00,CLR,,0.00,WeatherDisplay:10.37,2013-07-25 15:51:00,
2013-07-25 10:52:00,75.6,60.2,28.85,SSW,202,5.8,5.8,59,0.00,CLR,,0.00,WeatherDisplay:10.37,2013-07-25 15:52:00,
2013-07-25 10:54:00,73.8,57.6,28.85,SW,225,5.8,5.8,57,0.00,CLR,,0.00,WeatherDisplay:10.37,2013-07-25 15:54:00,
2013-07-25 10:55:00,73.8,57.6,28.85,West,270,4.6,4.6,57,0.00,CLR,,0.00,WeatherDisplay:10.37,2013-07-25 15:55:00,
2013-07-25 10:56:00,74.1,57.9,28.85,WNW,292,6.9,6.9,57,0.00,CLR,,0.00,WeatherDisplay:10.37,2013-07-25 15:56:00,
2013-07-25 10:57:00,74.1,57.9,28.85,SSW,202,5.8,5.8,57,0.00,CLR,,0.00,WeatherDisplay:10.37,2013-07-25 15:57:00,
2013-07-25 10:59:00,75.7,59.9,28.85,NNW,338,5.8,5.8,58,0.00,CLR,,0.00,WeatherDisplay:10.37,2013-07-25 15:59:00,
2013-07-25 11:00:00,76.8,60.9,28.85,West,270,2.3,2.3,58,0.00,CLR,,0.00,WeatherDisplay:10.37,2013-07-25 16:00:00,
2013-07-25 11:02:00,77.5,61.6,28.85,South,180,5.9,5.9,58,0.00,CLR,,0.00,WeatherDisplay:10.37,2013-07-25 16:02:00,
2013-07-25 11:04:00,77.4,59.4,28.85,NW,315,3.5,3.5,54,0.00,CLR,,0.00,WeatherDisplay:10.37,2013-07-25 16:04:00,
2013-07-25 11:05:00,77.2,59.8,28.85,WSW,248,3.5,3.5,55,0.00,CLR,,0.00,WeatherDisplay:10.37,2013-07-25 16:05:00,
2013-07-25 11:07:00,78.1,60.6,28.85,SSE,158,2.3,2.3,55,0.00,CLR,,0.00,WeatherDisplay:10.37,2013-07-25 16:07:00,
2013-07-25 11:08:00,78.8,61.3,28.85,SSW,202,2.3,2.3,55,0.00,CLR,,0.00,WeatherDisplay:10.37,2013-07-25 16:08:00,
2013-07-25 11:10:00,79.2,61.6,28.82,NNW,338,6.4,6.4,55,0.00,CLR,,0.00,WeatherDisplay:10.37,2013-07-25 16:10:00,
2013-07-25 11:12:00,77.7,58.7,28.82,SW,225,5.8,5.8,52,0.00,CLR,,0.00,WeatherDisplay:10.37,2013-07-25 16:12:00,
2013-07-25 11:13:00,77.4,58.4,28.82,WSW,248,5.8,5.8,52,0.00,CLR,,0.00,WeatherDisplay:10.37,2013-07-25 16:13:00,
2013-07-25 11:15:00,76.6,57.7,28.82,SSW,202,5.8,5.8,52,0.00,CLR,,0.00,WeatherDisplay:10.37,2013-07-25 16:15:00,
2013-07-25 11:16:00,75.7,56.9,28.82,ESE,112,5.8,5.8,52,0.00,CLR,,0.00,WeatherDisplay:10.37,2013-07-25 16:16:00,
2013-07-25 11:17:00,75.2,56.4,28.82,ESE,112,4.6,4.6,52,0.00,CLR,,0.00,WeatherDisplay:10.37,2013-07-25 16:17:00,
2013-07-25 11:18:00,75.0,56.7,28.82,WNW,292,1.2,0.0,53,0.00,CLR,,0.00,WeatherDisplay:10.37,2013-07-25 16:18:00,
2013-07-25 11:20:00,74.3,56.6,28.82,SE,135,2.3,2.3,54,0.00,CLR,,0.00,WeatherDisplay:10.37,2013-07-25 16:20:00,
2013-07-25 11:21:00,74.1,56.4,28.82,WSW,248,2.3,0.0,54,0.00,CLR,,0.00,WeatherDisplay:10.37,2013-07-25 16:21:00,
2013-07-25 11:22:00,73.9,56.8,28.82,West,270,2.3,2.3,55,0.00,CLR,,0.00,WeatherDisplay:10.37,2013-07-25 16:22:00,
2013-07-25 11:23:00,73.8,56.6,28.82,SW,225,4.6,4.6,55,0.00,CLR,,0.00,WeatherDisplay:10.37,2013-07-25 16:23:00,
2013-07-25 11:26:00,72.9,57.2,28.82,South,180,6.2,6.2,58,0.00,CLR,,0.00,WeatherDisplay:10.37,2013-07-25 16:26:00,
2013-07-25 11:27:00,72.5,56.9,28.82,SSW,202,5.8,5.8,58,0.00,CLR,,0.00,WeatherDisplay:10.37,2013-07-25 16:27:00,
2013-07-25 11:28:00,72.5,56.9,28.82,SSW,202,3.6,3.6,58,0.00,CLR,,0.00,WeatherDisplay:10.37,2013-07-25 16:28:00,
2013-07-25 11:32:00,72.3,58.1,28.82,SSE,158,8.1,8.1,61,0.00,CLR,,0.00,WeatherDisplay:10.37,2013-07-25 16:32:00,
2013-07-25 11:33:00,72.3,57.7,28.82,SSW,202,8.1,8.1,60,0.00,CLR,,0.00,WeatherDisplay:10.37,2013-07-25 16:33:00,
2013-07-25 11:34:00,72.7,58.0,28.82,South,180,2.3,2.3,60,0.00,CLR,,0.00,WeatherDisplay:10.37,2013-07-25 16:34:00,
2013-07-25 11:37:00,73.2,58.5,28.82,SSE,158,4.6,4.6,60,0.00,CLR,,0.00,WeatherDisplay:10.37,2013-07-25 16:37:00,
2013-07-25 11:38:00,73.2,58.5,28.82,SSE,158,4.6,4.6,60,0.00,CLR,,0.00,WeatherDisplay:10.37,2013-07-25 16:38:00,
2013-07-25 11:39:00,73.6,58.8,28.82,South,180,5.8,5.8,60,0.00,CLR,,0.00,WeatherDisplay:10.37,2013-07-25 16:39:00,
2013-07-25 11:42:00,73.8,58.5,28.79,South,180,6.9,6.9,59,0.00,CLR,,0.00,WeatherDisplay:10.37,2013-07-25 16:42:00,
2013-07-25 11:43:00,73.8,58.5,28.79,WSW,248,6.9,6.9,59,0.00,CLR,,0.00,WeatherDisplay:10.37,2013-07-25 16:43:00,
2013-07-25 11:44:00,74.1,59.3,28.79,SSW,202,6.9,6.9,60,0.00,CLR,,0.00,WeatherDisplay:10.37,2013-07-25 16:44:00,
2013-07-25 11:47:00,73.6,59.3,28.79,SW,225,8.1,8.1,61,0.00,CLR,,0.00,WeatherDisplay:10.37,2013-07-25 16:47:00,
2013-07-25 11:48:00,73.6,58.8,28.79,SE,135,3.5,3.5,60,0.00,CLR,,0.00,WeatherDisplay:10.37,2013-07-25 16:48:00,
2013-07-25 11:49:00,73.8,59.0,28.79,SSE,158,2.4,2.4,60,0.00,CLR,,0.00,WeatherDisplay:10.37,2013-07-25 16:49:00,
2013-07-25 11:52:00,75.6,61.6,28.79,SSW,202,3.5,3.5,62,0.00,CLR,,0.00,WeatherDisplay:10.37,2013-07-25 16:52:00,
2013-07-25 11:53:00,76.1,61.2,28.79,WNW,292,3.5,3.5,60,0.00,CLR,,0.00,WeatherDisplay:10.37,2013-07-25 16:53:00,
2013-07-25 11:54:00,76.3,59.9,28.79,SSE,158,5.8,5.8,57,0.00,CLR,,0.00,WeatherDisplay:10.37,2013-07-25 16:54:00,
2013-07-25 11:57:00,75.6,58.8,28.79,SSE,158,8.1,8.1,56,0.00,CLR,,0.00,WeatherDisplay:10.37,2013-07-25 16:57:00,
2013-07-25 11:58:00,75.6,58.8,28.79,South,180,5.8,5.8,56,0.00,CLR,,0.00,WeatherDisplay:10.37,2013-07-25 16:58:00,
2013-07-25 11:59:00,76.1,59.8,28.79,South,180,5.8,5.8,57,0.00,CLR,,0.00,WeatherDisplay:10.37,2013-07-25 16:59:00,
2013-07-25 12:00:00,76.1,59.8,28.79,WSW,248,4.6,4.6,57,0.00,CLR,,0.00,WeatherDisplay:10.37,2013-07-25 17:00:00,
2013-07-25 12:02:00,77.0,60.1,28.79,SSE,158,4.6,4.6,56,0.00,CLR,,0.00,WeatherDisplay:10.37,2013-07-25 17:02:00,
2013-07-25 12:03:00,76.6,60.3,28.79,South,180,5.8,5.8,57,0.00,CLR,,0.00,WeatherDisplay:10.37,2013-07-25 17:03:00,
2013-07-25 12:04:00,76.6,60.3,28.79,South,180,5.8,5.8,57,0.00,CLR,,0.00,WeatherDisplay:10.37,2013-07-25 17:04:00,
2013-07-25 12:05:00,77.2,60.8,28.79,South,180,3.5,3.8,57,0.00,CLR,,0.00,WeatherDisplay:10.37,2013-07-25 17:05:00,
2013-07-25 12:08:00,76.5,59.6,28.79,South,180,12.7,12.7,56,0.00,CLR,,0.00,WeatherDisplay:10.37,2013-07-25 17:08:00,
2013-07-25 12:09:00,76.8,60.9,28.79,WNW,292,8.1,8.1,58,0.00,CLR,,0.00,WeatherDisplay:10.37,2013-07-25 17:09:00,
2013-07-25 12:10:00,77.9,61.9,28.79,WSW,248,6.9,6.9,58,0.00,CLR,,0.00,WeatherDisplay:10.37,2013-07-25 17:10:00,
2013-07-25 12:12:00,78.1,60.1,28.79,SSE,158,5.8,5.8,54,0.00,CLR,,0.00,WeatherDisplay:10.37,2013-07-25 17:12:00,
2013-07-25 12:13:00,78.1,60.1,28.79,SSE,158,5.8,5.8,54,0.00,CLR,,0.00,WeatherDisplay:10.37,2013-07-25 17:13:00,
2013-07-25 12:14:00,78.1,60.6,28.79,SSW,202,3.5,3.5,55,0.00,CLR,,0.00,WeatherDisplay:10.37,2013-07-25 17:14:00,
2013-07-25 12:15:00,77.9,59.9,28.79,SSW,202,4.6,4.6,54,0.00,CLR,,0.00,WeatherDisplay:10.37,2013-07-25 17:15:00,
2013-07-25 12:17:00,77.4,58.9,28.79,South,180,5.8,5.8,53,0.00,CLR,,0.00,WeatherDisplay:10.37,2013-07-25 17:17:00,
2013-07-25 12:18:00,77.2,58.7,28.79,WSW,248,4.6,4.6,53,0.00,CLR,,0.00,WeatherDisplay:10.37,2013-07-25 17:18:00,
2013-07-25 12:19:00,78.1,60.6,28.79,NE,45,4.6,4.6,55,0.00,CLR,,0.00,WeatherDisplay:10.37,2013-07-25 17:19:00,
2013-07-25 12:20:00,78.8,60.7,28.79,West,270,3.8,3.8,54,0.00,CLR,,0.00,WeatherDisplay:10.37,2013-07-25 17:20:00,
2013-07-25 12:23:00,78.1,59.0,28.79,ENE,68,5.9,5.9,52,0.00,CLR,,0.00,WeatherDisplay:10.37,2013-07-25 17:23:00,
2013-07-25 12:24:00,78.1,60.6,28.79,SSE,158,8.1,8.1,55,0.00,CLR,,0.00,WeatherDisplay:10.37,2013-07-25 17:24:00,
2013-07-25 12:25:00,77.7,58.7,28.79,SSW,202,8.1,8.1,52,0.00,CLR,,0.00,WeatherDisplay:10.37,2013-07-25 17:25:00,
2013-07-25 12:28:00,78.3,59.7,28.79,West,270,4.6,4.6,53,0.00,CLR,,0.00,WeatherDisplay:10.37,2013-07-25 17:28:00,
2013-07-25 12:29:00,79.0,60.4,28.79,SE,135,2.4,2.4,53,0.00,CLR,,0.00,WeatherDisplay:10.37,2013-07-25 17:29:00,
2013-07-25 12:30:00,78.8,59.7,28.79,SSE,158,4.6,4.6,52,0.00,CLR,,0.00,WeatherDisplay:10.37,2013-07-25 17:30:00,
2013-07-25 12:33:00,78.6,59.5,28.79,NNW,338,9.2,9.2,52,0.00,CLR,,0.00,WeatherDisplay:10.37,2013-07-25 17:33:00,
2013-07-25 12:34:00,78.8,60.7,28.79,SSW,202,4.6,4.6,54,0.00,CLR,,0.00,WeatherDisplay:10.37,2013-07-25 17:34:00,
2013-07-25 12:35:00,78.6,59.0,28.79,South,180,4.0,4.0,51,0.00,CLR,,0.00,WeatherDisplay:10.37,2013-07-25 17:35:00,
2013-07-25 12:36:00,78.6,59.0,28.79,SSW,202,5.6,5.6,51,0.00,CLR,,0.00,WeatherDisplay:10.37,2013-07-25 17:36:00,
2013-07-25 12:38:00,78.6,60.1,28.79,SSW,202,3.5,3.5,53,0.00,CLR,,0.00,WeatherDisplay:10.37,2013-07-25 17:38:00,
2013-07-25 12:39:00,79.0,59.3,28.79,WSW,248,4.6,4.6,51,0.00,CLR,,0.00,WeatherDisplay:10.37,2013-07-25 17:39:00,
2013-07-25 12:40:00,79.0,59.3,28.79,South,180,5.8,5.8,51,0.00,CLR,,0.00,WeatherDisplay:10.37,2013-07-25 17:40:00,
2013-07-25 12:42:00,79.5,60.9,28.79,South,180,5.8,5.8,53,0.00,CLR,,0.00,WeatherDisplay:10.37,2013-07-25 17:42:00,
2013-07-25 12:43:00,79.7,60.5,28.79,SW,225,5.8,5.8,52,0.00,CLR,,0.00,WeatherDisplay:10.37,2013-07-25 17:43:00,
2013-07-25 12:44:00,80.2,61.6,28.79,SSW,202,5.8,5.8,53,0.00,CLR,,0.00,WeatherDisplay:10.37,2013-07-25 17:44:00,
2013-07-25 12:45:00,80.2,59.9,28.79,WSW,248,6.9,6.9,50,0.00,CLR,,0.00,WeatherDisplay:10.37,2013-07-25 17:45:00,
2013-07-25 12:47:00,79.9,59.6,28.79,SSW,202,3.8,3.8,50,0.00,CLR,,0.00,WeatherDisplay:10.37,2013-07-25 17:47:00,
2013-07-25 12:48:00,79.3,59.6,28.79,SSW,202,5.8,5.8,51,0.00,CLR,,0.00,WeatherDisplay:10.37,2013-07-25 17:48:00,
2013-07-25 12:49:00,79.3,59.6,28.79,SSW,202,3.5,3.5,51,0.00,CLR,,0.00,WeatherDisplay:10.37,2013-07-25 17:49:00,
2013-07-25 12:50:00,80.2,61.0,28.79,SSE,158,2.3,2.3,52,0.00,CLR,,0.00,WeatherDisplay:10.37,2013-07-25 17:50:00,
2013-07-25 12:52:00,79.0,59.3,28.79,South,180,12.7,12.7,51,0.00,CLR,,0.00,WeatherDisplay:10.37,2013-07-25 17:52:00,
2013-07-25 12:54:00,79.0,58.8,28.79,ESE,112,5.8,5.8,50,0.00,CLR,,0.00,WeatherDisplay:10.37,2013-07-25 17:54:00,
2013-07-25 12:55:00,79.0,58.8,28.79,South,180,5.8,5.8,50,0.00,CLR,,0.00,WeatherDisplay:10.37,2013-07-25 17:55:00,
2013-07-25 12:57:00,79.2,59.5,28.79,SE,135,4.6,4.6,51,0.00,CLR,,0.00,WeatherDisplay:10.37,2013-07-25 17:57:00,
2013-07-25 12:59:00,79.5,59.8,28.79,South,180,3.5,3.5,51,0.00,CLR,,0.00,WeatherDisplay:10.37,2013-07-25 17:59:00,
2013-07-25 13:00:00,79.7,59.4,28.79,WSW,248,3.5,3.8,50,0.00,CLR,,0.00,WeatherDisplay:10.37,2013-07-25 18:00:00,
2013-07-25 13:02:00,80.1,58.6,28.79,WSW,248,4.6,4.6,48,0.00,CLR,,0.00,WeatherDisplay:10.37,2013-07-25 18:02:00,
2013-07-25 13:04:00,80.6,59.7,28.79,SW,225,4.6,4.6,49,0.00,CLR,,0.00,WeatherDisplay:10.37,2013-07-25 18:04:00,
2013-07-25 13:06:00,81.5,59.9,28.79,South,180,5.8,5.8,48,0.00,CLR,,0.00,WeatherDisplay:10.37,2013-07-25 18:06:00,
2013-07-25 13:08:00,81.7,60.1,28.79,SE,135,5.8,5.8,48,0.00,CLR,,0.00,WeatherDisplay:10.37,2013-07-25 18:08:00,
2013-07-25 13:09:00,81.5,59.3,28.79,West,270,5.9,5.9,47,0.00,CLR,,0.00,WeatherDisplay:10.37,2013-07-25 18:09:00,
2013-07-25 13:10:00,81.5,59.9,28.79,SSW,202,5.8,5.8,48,0.00,CLR,,0.00,WeatherDisplay:10.37,2013-07-25 18:10:00,
2013-07-25 13:12:00,81.3,59.8,28.79,SW,225,5.8,5.8,48,0.00,CLR,,0.00,WeatherDisplay:10.37,2013-07-25 18:12:00,
2013-07-25 13:13:00,81.3,59.8,28.79,SW,225,5.8,5.8,48,0.00,CLR,,0.00,WeatherDisplay:10.37,2013-07-25 18:13:00,
2013-07-25 13:15:00,81.1,59.6,28.79,North,0,4.6,4.6,48,0.00,CLR,,0.00,WeatherDisplay:10.37,2013-07-25 18:15:00,
2013-07-25 13:18:00,81.3,59.8,28.79,West,270,3.8,3.8,48,0.00,CLR,,0.00,WeatherDisplay:10.37,2013-07-25 18:18:00,
2013-07-25 13:20:00,81.0,58.8,28.79,SW,227,3.0,5.0,47,0.00,CLR,,0.00,WeatherDisplay:10.37,2013-07-25 18:20:00,
2013-07-25 13:23:00,79.2,57.8,28.79,SSW,202,6.9,6.9,48,0.00,CLR,,0.00,WeatherDisplay:10.37,2013-07-25 18:23:00,
2013-07-25 13:25:00,79.2,57.8,28.79,SW,225,3.8,3.8,48,0.00,CLR,,0.00,WeatherDisplay:10.37,2013-07-25 18:25:00,
2013-07-25 13:28:00,79.9,59.6,28.79,South,180,6.9,6.9,50,0.00,CLR,,0.00,WeatherDisplay:10.37,2013-07-25 18:28:00,
2013-07-25 13:30:00,79.9,59.0,28.79,West,270,9.2,9.2,49,0.00,CLR,,0.00,WeatherDisplay:10.37,2013-07-25 18:30:00,
2013-07-25 13:33:00,80.8,59.3,28.79,WSW,248,6.9,6.9,48,0.00,CLR,,0.00,WeatherDisplay:10.37,2013-07-25 18:33:00,
2013-07-25 13:34:00,80.8,59.3,28.79,WSW,248,6.9,6.9,48,0.00,CLR,,0.00,WeatherDisplay:10.37,2013-07-25 18:34:00,
2013-07-25 13:35:00,81.1,59.6,28.79,WSW,248,3.6,3.6,48,0.00,CLR,,0.00,WeatherDisplay:10.37,2013-07-25 18:35:00,
2013-07-25 13:38:00,81.7,59.5,28.79,West,270,4.6,4.6,47,0.00,CLR,,0.00,WeatherDisplay:10.37,2013-07-25 18:38:00,
2013-07-25 13:39:00,82.0,59.8,28.79,NW,315,4.6,4.6,47,0.00,CLR,,0.00,WeatherDisplay:10.37,2013-07-25 18:39:00,
2013-07-25 13:40:00,82.0,59.8,28.79,SE,135,3.5,3.5,47,0.00,CLR,,0.00,WeatherDisplay:10.37,2013-07-25 18:40:00,
2013-07-25 13:42:00,82.4,60.1,28.79,SSW,202,6.9,6.9,47,0.00,CLR,,0.00,WeatherDisplay:10.37,2013-07-25 18:42:00,
2013-07-25 13:43:00,82.2,59.4,28.79,SE,135,6.9,6.9,46,0.00,CLR,,0.00,WeatherDisplay:10.37,2013-07-25 18:43:00,
2013-07-25 13:44:00,82.2,59.4,28.79,SSE,158,6.9,6.9,46,0.00,CLR,,0.00,WeatherDisplay:10.37,2013-07-25 18:44:00,
2013-07-25 13:45:00,82.6,60.3,28.79,West,270,3.8,3.8,47,0.00,CLR,,0.00,WeatherDisplay:10.37,2013-07-25 18:45:00,
2013-07-25 13:47:00,83.1,60.2,28.79,West,270,3.5,3.5,46,0.00,CLR,,0.00,WeatherDisplay:10.37,2013-07-25 18:47:00,
2013-07-25 13:48:00,83.3,60.4,28.79,SSW,202,4.6,4.6,46,0.00,CLR,,0.00,WeatherDisplay:10.37,2013-07-25 18:48:00,
2013-07-25 13:49:00,83.3,60.4,28.79,South,180,4.6,4.6,46,0.00,CLR,,0.00,WeatherDisplay:10.37,2013-07-25 18:49:00,
2013-07-25 13:51:00,82.9,60.0,28.79,SSE,158,4.6,4.6,46,0.00,CLR,,0.00,WeatherDisplay:10.37,2013-07-25 18:51:00,
2013-07-25 13:52:00,83.5,61.1,28.79,SW,225,2.6,2.6,47,0.00,CLR,,0.00,WeatherDisplay:10.37,2013-07-25 18:52:00,
2013-07-25 13:54:00,82.8,58.6,28.79,NW,315,6.0,6.0,44,0.00,CLR,,0.00,WeatherDisplay:10.37,2013-07-25 18:54:00,
2013-07-25 13:56:00,82.6,59.1,28.79,SSW,202,5.8,5.8,45,0.00,CLR,,0.00,WeatherDisplay:10.37,2013-07-25 18:56:00,
2013-07-25 13:57:00,82.8,59.9,28.79,North,0,5.8,5.8,46,0.00,CLR,,0.00,WeatherDisplay:10.37,2013-07-25 18:57:00,
2013-07-25 13:59:00,83.3,60.4,28.79,SW,225,2.3,2.3,46,0.00,CLR,,0.00,WeatherDisplay:10.37,2013-07-25 18:59:00,
2013-07-25 14:00:00,83.3,60.4,28.79,South,180,7.4,7.4,46,0.00,CLR,,0.00,WeatherDisplay:10.37,2013-07-25 19:00:00,
2013-07-25 14:01:00,83.3,59.7,28.79,NNE,22,6.9,6.9,45,0.00,CLR,,0.00,WeatherDisplay:10.37,2013-07-25 19:01:00,
2013-07-25 14:02:00,82.9,59.4,28.79,SW,225,3.6,3.6,45,0.00,CLR,,0.00,WeatherDisplay:10.37,2013-07-25 19:02:00,
2013-07-25 14:04:00,83.3,59.7,28.79,WSW,248,2.6,2.6,45,0.00,CLR,,0.00,WeatherDisplay:10.37,2013-07-25 19:04:00,
2013-07-25 14:05:00,83.3,61.0,28.79,SE,135,3.5,3.5,47,0.00,CLR,,0.00,WeatherDisplay:10.37,2013-07-25 19:05:00,
2013-07-25 14:07:00,83.8,60.2,28.79,South,180,3.6,3.6,45,0.00,CLR,,0.00,WeatherDisplay:10.37,2013-07-25 19:07:00,
2013-07-25 14:08:00,83.3,59.1,28.79,SSE,158,4.0,4.0,44,0.00,CLR,,0.00,WeatherDisplay:10.37,2013-07-25 19:08:00,
2013-07-25 14:09:00,83.1,58.9,28.79,West,270,4.6,4.6,44,0.00,CLR,,0.00,WeatherDisplay:10.37,2013-07-25 19:09:00,
2013-07-25 14:10:00,83.1,58.9,28.76,SW,225,4.6,4.6,44,0.00,CLR,,0.00,WeatherDisplay:10.37,2013-07-25 19:10:00,
2013-07-25 14:12:00,82.6,58.5,28.76,South,180,4.6,4.6,44,0.00,CLR,,0.00,WeatherDisplay:10.37,2013-07-25 19:12:00,
2013-07-25 14:13:00,82.9,59.4,28.76,West,270,4.6,4.6,45,0.00,CLR,,0.00,WeatherDisplay:10.37,2013-07-25 19:13:00,
2013-07-25 14:14:00,83.7,60.7,28.76,South,180,6.4,6.4,46,0.00,CLR,,0.00,WeatherDisplay:10.37,2013-07-25 19:14:00,
2013-07-25 14:15:00,82.9,59.4,28.76,SSW,202,6.9,6.9,45,0.00,CLR,,0.00,WeatherDisplay:10.37,2013-07-25 19:15:00,
2013-07-25 14:17:00,83.1,59.6,28.76,NNE,22,4.6,4.6,45,0.00,CLR,,0.00,WeatherDisplay:10.37,2013-07-25 19:17:00,
2013-07-25 14:18:00,83.1,59.6,28.76,SSW,202,3.6,3.6,45,0.00,CLR,,0.00,WeatherDisplay:10.37,2013-07-25 19:18:00,
2013-07-25 14:20:00,82.4,60.1,28.76,SW,225,9.4,9.4,47,0.00,CLR,,0.00,WeatherDisplay:10.37,2013-07-25 19:20:00,
2013-07-25 14:21:00,82.2,60.0,28.76,SSE,158,12.1,12.1,47,0.00,CLR,,0.00,WeatherDisplay:10.37,2013-07-25 19:21:00,
2013-07-25 14:23:00,80.6,57.3,28.76,SW,225,9.8,9.8,45,0.00,CLR,,0.00,WeatherDisplay:10.37,2013-07-25 19:23:00,
2013-07-25 14:25:00,80.4,58.9,28.76,SW,225,5.8,5.8,48,0.00,CLR,,0.00,WeatherDisplay:10.37,2013-07-25 19:25:00,
2013-07-25 14:26:00,80.4,58.9,28.76,North,0,5.8,5.8,48,0.00,CLR,,0.00,WeatherDisplay:10.37,2013-07-25 19:26:00,
2013-07-25 14:28:00,81.1,59.6,28.76,SSW,202,7.6,7.6,48,0.00,CLR,,0.00,WeatherDisplay:10.37,2013-07-25 19:28:00,
2013-07-25 14:31:00,81.9,59.7,28.76,WSW,248,4.6,4.6,47,0.00,CLR,,0.00,WeatherDisplay:10.37,2013-07-25 19:31:00,
2013-07-25 14:33:00,81.9,60.2,28.76,SSW,202,5.8,5.8,48,0.00,CLR,,0.00,WeatherDisplay:10.37,2013-07-25 19:33:00,
2013-07-25 14:34:00,81.9,59.7,28.76,SW,225,4.6,4.6,47,0.00,CLR,,0.00,WeatherDisplay:10.37,2013-07-25 19:34:00,
2013-07-25 14:36:00,81.5,59.9,28.76,North,0,4.6,4.6,48,0.00,CLR,,0.00,WeatherDisplay:10.37,2013-07-25 19:36:00,
2013-07-25 14:38:00,81.1,60.2,28.76,SW,225,4.6,4.6,49,0.00,CLR,,0.00,WeatherDisplay:10.37,2013-07-25 19:38:00,
2013-07-25 14:39:00,81.0,60.0,28.76,SSW,202,10.4,10.4,49,0.00,CLR,,0.00,WeatherDisplay:10.37,2013-07-25 19:39:00,
2013-07-25 14:41:00,80.6,59.7,28.76,SW,225,6.2,6.2,49,0.00,CLR,,0.00,WeatherDisplay:10.37,2013-07-25 19:41:00,
2013-07-25 14:42:00,80.1,59.2,28.76,SE,135,5.8,5.8,49,0.00,CLR,,0.00,WeatherDisplay:10.37,2013-07-25 19:42:00,
2013-07-25 14:43:00,79.7,59.4,28.76,South,180,6.9,6.9,50,0.00,CLR,,0.00,WeatherDisplay:10.37,2013-07-25 19:43:00,
2013-07-25 14:44:00,79.7,59.4,28.76,WSW,248,6.9,6.9,50,0.00,CLR,,0.00,WeatherDisplay:10.37,2013-07-25 19:44:00,
2013-07-25 14:46:00,79.5,60.4,28.76,WSW,248,5.8,5.8,52,0.00,CLR,,0.00,WeatherDisplay:10.37,2013-07-25 19:46:00,
2013-07-25 14:47:00,79.3,60.2,28.76,WNW,292,5.8,5.8,52,0.00,CLR,,0.00,WeatherDisplay:10.37,2013-07-25 19:47:00,
2013-07-25 14:48:00,79.0,59.9,28.76,West,270,4.6,4.6,52,0.00,CLR,,0.00,WeatherDisplay:10.37,2013-07-25 19:48:00,
2013-07-25 14:49:00,79.0,59.9,28.76,SSE,158,4.6,4.7,52,0.00,CLR,,0.00,WeatherDisplay:10.37,2013-07-25 19:49:00,
2013-07-25 14:52:00,79.3,60.7,28.76,South,180,3.5,3.5,53,0.00,CLR,,0.00,WeatherDisplay:10.37,2013-07-25 19:52:00,
2013-07-25 14:54:00,79.0,60.9,28.76,South,180,8.1,8.1,54,0.00,CLR,,0.00,WeatherDisplay:10.37,2013-07-25 19:54:00,
2013-07-25 14:55:00,79.0,60.9,28.76,ESE,112,5.8,5.8,54,0.00,CLR,,0.00,WeatherDisplay:10.37,2013-07-25 19:55:00,
2013-07-25 14:57:00,78.4,60.4,28.76,SSE,158,4.6,4.9,54,0.00,CLR,,0.00,WeatherDisplay:10.37,2013-07-25 19:57:00,
2013-07-25 14:58:00,78.4,60.4,28.76,South,180,9.2,9.2,54,0.00,CLR,,0.00,WeatherDisplay:10.37,2013-07-25 19:58:00,
2013-07-25 14:59:00,78.6,61.1,28.76,WSW,248,5.8,5.8,55,0.00,CLR,,0.00,WeatherDisplay:10.37,2013-07-25 19:59:00,
2013-07-25 15:00:00,78.6,61.6,28.76,NE,45,4.6,4.6,56,0.00,CLR,,0.00,WeatherDisplay:10.37,2013-07-25 20:00:00,
2013-07-25 15:02:00,78.6,61.6,28.76,South,180,5.8,5.8,56,0.00,CLR,,0.00,WeatherDisplay:10.37,2013-07-25 20:02:00,
2013-07-25 15:03:00,78.8,62.3,28.76,South,180,6.0,6.0,57,0.00,CLR,,0.00,WeatherDisplay:10.37,2013-07-25 20:03:00,
2013-07-25 15:04:00,78.3,61.3,28.76,SSE,158,5.8,5.8,56,0.00,CLR,,0.00,WeatherDisplay:10.37,2013-07-25 20:04:00,
2013-07-25 15:05:00,78.3,61.3,28.76,SSE,158,3.5,3.6,56,0.00,CLR,,0.00,WeatherDisplay:10.37,2013-07-25 20:05:00,
2013-07-25 15:07:00,78.4,61.9,28.76,SSW,202,3.8,3.8,57,0.00,CLR,,0.00,WeatherDisplay:10.37,2013-07-25 20:07:00,
2013-07-25 15:08:00,78.4,61.9,28.76,SW,225,4.6,4.6,57,0.00,CLR,,0.00,WeatherDisplay:10.37,2013-07-25 20:08:00,
2013-07-25 15:10:00,78.4,61.9,28.76,SSW,208,2.0,6.0,57,0.00,CLR,,0.00,WeatherDisplay:10.37,2013-07-25 20:10:00,
2013-07-25 15:12:00,78.3,61.8,28.76,NW,315,4.6,4.6,57,0.00,CLR,,0.00,WeatherDisplay:10.37,2013-07-25 20:12:00,
2013-07-25 15:13:00,78.3,61.8,28.76,SW,225,3.5,3.5,57,0.00,CLR,,0.00,WeatherDisplay:10.37,2013-07-25 20:13:00,
2013-07-25 15:15:00,78.4,62.4,28.76,West,270,1.2,1.4,58,0.00,CLR,,0.00,WeatherDisplay:10.37,2013-07-25 20:15:00,
2013-07-25 15:18:00,77.9,62.9,28.76,SW,225,4.6,4.6,60,0.00,CLR,,0.00,WeatherDisplay:10.37,2013-07-25 20:18:00,
2013-07-25 15:20:00,77.5,61.6,28.76,South,180,8.1,8.1,58,0.00,CLR,,0.00,WeatherDisplay:10.37,2013-07-25 20:20:00,
2013-07-25 15:23:00,77.2,62.2,28.76,SSE,158,4.6,4.6,60,0.00,CLR,,0.00,WeatherDisplay:10.37,2013-07-25 20:23:00,
2013-07-25 15:24:00,77.0,62.0,28.73,South,180,4.6,4.6,60,0.00,CLR,,0.00,WeatherDisplay:10.37,2013-07-25 20:24:00,
2013-07-25 15:25:00,77.0,62.5,28.73,ESE,112,5.8,5.8,61,0.00,CLR,,0.00,WeatherDisplay:10.37,2013-07-25 20:25:00,
2013-07-25 15:28:00,76.8,62.3,28.73,SSW,202,3.5,3.5,61,0.00,CLR,,0.00,WeatherDisplay:10.37,2013-07-25 20:28:00,
2013-07-25 15:29:00,76.8,62.3,28.73,SE,135,2.3,2.3,61,0.00,CLR,,0.00,WeatherDisplay:10.37,2013-07-25 20:29:00,
2013-07-25 15:30:00,76.8,62.3,28.73,South,184,1.0,4.0,61,0.00,CLR,,0.00,WeatherDisplay:10.37,2013-07-25 20:30:00,
2013-07-25 15:31:00,76.6,62.6,28.73,SW,225,3.8,3.8,62,0.00,CLR,,0.00,WeatherDisplay:10.37,2013-07-25 20:31:00,
2013-07-25 15:33:00,76.6,62.6,28.73,SW,225,2.3,0.0,62,0.00,CLR,,0.00,WeatherDisplay:10.37,2013-07-25 20:33:00,
2013-07-25 15:34:00,76.6,62.6,28.73,SW,225,2.3,2.3,62,0.00,CLR,,0.00,WeatherDisplay:10.37,2013-07-25 20:34:00,
2013-07-25 15:35:00,76.6,62.6,28.73,SW,225,1.2,1.2,62,0.00,CLR,,0.00,WeatherDisplay:10.37,2013-07-25 20:35:00,
2013-07-25 15:37:00,76.5,62.9,28.73,SSW,202,2.6,0.0,63,0.00,CLR,,0.00,WeatherDisplay:10.37,2013-07-25 20:37:00,
2013-07-25 15:38:00,76.3,62.8,28.73,SW,225,2.3,2.3,63,0.00,CLR,,0.00,WeatherDisplay:10.37,2013-07-25 20:38:00,
2013-07-25 15:39:00,76.3,62.8,28.76,SW,225,1.2,0.0,63,0.00,CLR,,0.00,WeatherDisplay:10.37,2013-07-25 20:39:00,
2013-07-25 15:40:00,76.3,62.8,28.76,SW,225,0.0,0.0,63,0.00,CLR,,0.00,WeatherDisplay:10.37,2013-07-25 20:40:00,
2013-07-25 15:42:00,76.1,63.0,28.76,SW,225,2.3,2.3,64,0.00,CLR,,0.00,WeatherDisplay:10.37,2013-07-25 20:42:00,
2013-07-25 15:43:00,75.9,62.9,28.76,SSE,158,1.4,1.4,64,0.00,CLR,,0.00,WeatherDisplay:10.37,2013-07-25 20:43:00,
2013-07-25 15:45:00,75.7,63.1,28.76,West,270,2.3,2.3,65,0.00,CLR,,0.00,WeatherDisplay:10.37,2013-07-25 20:45:00,
2013-07-25 15:47:00,75.6,63.0,28.76,SSE,158,2.3,2.3,65,0.00,CLR,,0.00,WeatherDisplay:10.37,2013-07-25 20:47:00,
2013-07-25 15:49:00,75.4,62.8,28.76,SW,225,3.5,3.5,65,0.00,CLR,,0.00,WeatherDisplay:10.37,2013-07-25 20:49:00,
2013-07-25 15:50:00,75.4,62.8,28.76,SSW,202,1.2,0.0,65,0.00,CLR,,0.00,WeatherDisplay:10.37,2013-07-25 20:50:00,
2013-07-25 15:51:00,75.4,62.8,28.76,SSW,202,1.2,0.0,65,0.00,CLR,,0.00,WeatherDisplay:10.37,2013-07-25 20:51:00,
2013-07-25 15:53:00,75.0,63.3,28.76,SSE,158,4.6,4.6,67,0.00,CLR,,0.00,WeatherDisplay:10.37,2013-07-25 20:53:00,
2013-07-25 15:54:00,75.0,63.3,28.76,SW,225,5.8,5.8,67,0.00,CLR,,0.00,WeatherDisplay:10.37,2013-07-25 20:54:00,
2013-07-25 15:55:00,75.0,63.3,28.73,SE,135,2.3,2.3,67,0.00,CLR,,0.00,WeatherDisplay:10.37,2013-07-25 20:55:00,
2013-07-25 15:56:00,75.0,63.3,28.73,SSE,158,1.6,1.6,67,0.00,CLR,,0.00,WeatherDisplay:10.37,2013-07-25 20:56:00,
2013-07-25 15:58:00,74.8,63.1,28.73,SW,225,1.2,1.2,67,0.00,CLR,,0.00,WeatherDisplay:10.37,2013-07-25 20:58:00,
2013-07-25 15:59:00,74.8,63.6,28.73,West,270,2.3,2.3,68,0.00,CLR,,0.00,WeatherDisplay:10.37,2013-07-25 20:59:00,
2013-07-25 16:00:00,74.8,63.1,28.73,West,270,2.3,0.0,67,0.00,CLR,,0.00,WeatherDisplay:10.37,2013-07-25 21:00:00,
2013-07-25 16:03:00,74.8,63.6,28.73,SSW,202,1.4,0.0,68,0.00,CLR,,0.00,WeatherDisplay:10.37,2013-07-25 21:03:00,
2013-07-25 16:04:00,74.8,63.6,28.73,West,270,1.2,1.2,68,0.00,CLR,,0.00,WeatherDisplay:10.37,2013-07-25 21:04:00,
2013-07-25 16:05:00,74.7,63.4,28.73,West,270,1.2,0.0,68,0.00,CLR,,0.00,WeatherDisplay:10.37,2013-07-25 21:05:00,
2013-07-25 16:08:00,74.5,63.2,28.73,SW,225,0.0,0.0,68,0.00,CLR,,0.00,WeatherDisplay:10.37,2013-07-25 21:08:00,
2013-07-25 16:09:00,74.5,63.2,28.73,SW,225,0.0,0.0,68,0.00,CLR,,0.00,WeatherDisplay:10.37,2013-07-25 21:09:00,
2013-07-25 16:10:00,74.5,63.6,28.73,SW,225,0.0,0.0,69,0.00,CLR,,0.00,WeatherDisplay:10.37,2013-07-25 21:10:00,
2013-07-25 16:11:00,74.5,63.6,28.73,WSW,248,1.2,0.0,69,0.00,CLR,,0.00,WeatherDisplay:10.37,2013-07-25 21:11:00,
2013-07-25 16:14:00,74.1,64.1,28.73,SSW,202,0.0,0.0,71,0.00,CLR,,0.00,WeatherDisplay:10.37,2013-07-25 21:14:00,
2013-07-25 16:15:00,74.1,64.1,28.73,West,270,1.4,0.0,71,0.00,CLR,,0.00,WeatherDisplay:10.37,2013-07-25 21:15:00,
2013-07-25 16:17:00,73.8,63.4,28.73,SSE,158,3.5,0.0,70,0.00,CLR,,0.00,WeatherDisplay:10.37,2013-07-25 21:17:00,
2013-07-25 16:20:00,73.6,63.6,28.73,WNW,292,0.0,0.0,71,0.00,CLR,,0.00,WeatherDisplay:10.37,2013-07-25 21:20:00,
2013-07-25 16:21:00,73.4,63.8,28.73,WSW,248,1.2,0.0,72,0.00,CLR,,0.00,WeatherDisplay:10.37,2013-07-25 21:21:00,
2013-07-25 16:22:00,73.4,63.4,28.73,SW,225,1.2,0.0,71,0.00,CLR,,0.00,WeatherDisplay:10.37,2013-07-25 21:22:00,
2013-07-25 16:25:00,73.2,63.6,28.74,SW,227,0.0,1.0,72,0.00,CLR,,0.00,WeatherDisplay:10.37,2013-07-25 21:25:00,
2013-07-25 16:26:00,72.9,63.7,28.76,West,270,2.4,0.0,73,0.00,CLR,,0.00,WeatherDisplay:10.37,2013-07-25 21:26:00,
2013-07-25 16:27:00,72.9,64.5,28.76,WSW,248,2.3,2.3,75,0.00,CLR,,0.00,WeatherDisplay:10.37,2013-07-25 21:27:00,
2013-07-25 16:30:00,72.7,63.9,28.76,WSW,247,0.0,2.0,74,0.00,CLR,,0.00,WeatherDisplay:10.37,2013-07-25 21:30:00,
2013-07-25 16:31:00,72.5,63.7,28.76,West,270,1.2,1.2,74,0.00,CLR,,0.00,WeatherDisplay:10.37,2013-07-25 21:31:00,
2013-07-25 16:32:00,72.5,64.1,28.76,West,270,1.2,0.0,75,0.00,CLR,,0.00,WeatherDisplay:10.37,2013-07-25 21:32:00,
2013-07-25 16:35:00,72.3,63.9,28.76,WSW,248,0.0,0.0,75,0.01,RA,,0.01,WeatherDisplay:10.37,2013-07-25 21:35:00,
2013-07-25 16:36:00,72.1,64.2,28.76,West,270,0.0,0.0,76,0.01,RA,,0.01,WeatherDisplay:10.37,2013-07-25 21:36:00,
2013-07-25 16:37:00,72.1,64.2,28.76,West,270,0.0,0.0,76,0.01,RA,,0.01,WeatherDisplay:10.37,2013-07-25 21:37:00,
2013-07-25 16:40:00,71.6,64.7,28.76,West,270,3.5,3.5,79,0.03,RA,,0.03,WeatherDisplay:10.37,2013-07-25 21:40:00,
2013-07-25 16:41:00,71.4,64.6,28.76,WNW,292,2.3,2.3,79,0.03,RA,,0.03,WeatherDisplay:10.37,2013-07-25 21:41:00,
2013-07-25 16:42:00,71.4,64.9,28.76,WSW,248,3.5,3.5,80,0.04,RA,,0.04,WeatherDisplay:10.37,2013-07-25 21:42:00,
2013-07-25 16:43:00,71.2,64.8,28.76,West,270,1.4,2.0,80,0.04,RA,,0.04,WeatherDisplay:10.37,2013-07-25 21:43:00,
2013-07-25 16:45:00,70.9,66.5,28.76,NW,315,6.9,6.9,86,0.06,RA,,0.07,WeatherDisplay:10.37,2013-07-25 21:45:00,
2013-07-25 16:46:00,70.9,66.5,28.76,SW,225,5.8,5.8,86,0.09,RA,,0.09,WeatherDisplay:10.37,2013-07-25 21:46:00,
2013-07-25 16:47:00,70.5,66.5,28.76,North,0,3.5,3.5,87,0.12,RA,,0.12,WeatherDisplay:10.37,2013-07-25 21:47:00,
2013-07-25 16:48:00,70.3,66.6,28.76,West,270,4.6,4.6,88,0.14,RA,,0.15,WeatherDisplay:10.37,2013-07-25 21:48:00,
2013-07-25 16:50:00,69.6,65.2,28.76,WSW,248,11.5,11.5,86,0.16,RA,,0.16,WeatherDisplay:10.37,2013-07-25 21:50:00,
2013-07-25 16:52:00,69.6,64.6,28.76,WNW,292,11.5,11.5,84,0.16,RA,,0.16,WeatherDisplay:10.37,2013-07-25 21:52:00,
2013-07-25 16:53:00,69.4,64.7,28.76,SSW,202,6.9,6.9,85,0.16,RA,,0.17,WeatherDisplay:10.37,2013-07-25 21:53:00,
2013-07-25 16:55:00,69.1,63.7,28.76,WSW,248,5.8,5.8,83,0.18,RA,,0.18,WeatherDisplay:10.37,2013-07-25 21:55:00,
2013-07-25 16:57:00,68.7,63.3,28.76,West,270,3.5,3.5,83,0.18,RA,,0.18,WeatherDisplay:10.37,2013-07-25 21:57:00,
2013-07-25 16:58:00,68.7,63.3,28.76,WSW,248,4.6,4.6,83,0.19,RA,,0.19,WeatherDisplay:10.37,2013-07-25 21:58:00,
2013-07-25 17:00:00,68.4,63.3,28.76,NW,315,3.1,3.1,84,0.19,RA,,0.19,WeatherDisplay:10.37,2013-07-25 22:00:00,
2013-07-25 17:02:00,68.4,63.7,28.76,North,0,3.5,3.5,85,0.21,RA,,0.21,WeatherDisplay:10.37,2013-07-25 22:02:00,
2013-07-25 17:03:00,68.2,63.5,28.76,West,270,3.5,3.5,85,0.21,RA,,0.21,WeatherDisplay:10.37,2013-07-25 22:03:00,
2013-07-25 17:04:00,68.2,63.5,28.76,WSW,248,4.6,4.6,85,0.21,RA,,0.21,WeatherDisplay:10.37,2013-07-25 22:04:00,
2013-07-25 17:05:00,68.2,63.8,28.76,West,270,3.5,3.5,86,0.21,RA,,0.21,WeatherDisplay:10.37,2013-07-25 22:05:00,
2013-07-25 17:07:00,68.0,63.7,28.76,SW,225,4.6,4.6,86,0.21,RA,,0.21,WeatherDisplay:10.37,2013-07-25 22:07:00,
2013-07-25 17:08:00,68.0,63.7,28.76,WSW,248,4.6,4.6,86,0.21,RA,,0.21,WeatherDisplay:10.37,2013-07-25 22:08:00,
2013-07-25 17:09:00,68.0,63.7,28.79,West,270,2.3,2.3,86,0.21,RA,,0.21,WeatherDisplay:10.37,2013-07-25 22:09:00,
2013-07-25 17:11:00,68.0,63.7,28.79,SSW,202,2.3,2.3,86,0.21,RA,,0.21,WeatherDisplay:10.37,2013-07-25 22:11:00,
2013-07-25 17:12:00,67.8,63.8,28.79,WSW,248,1.4,0.0,87,0.22,RA,,0.22,WeatherDisplay:10.37,2013-07-25 22:12:00,
2013-07-25 17:13:00,67.8,63.8,28.79,WSW,248,2.3,2.3,87,0.22,RA,,0.22,WeatherDisplay:10.37,2013-07-25 22:13:00,
2013-07-25 17:15:00,68.0,64.0,28.79,SW,225,5.8,5.8,87,0.22,RA,,0.22,WeatherDisplay:10.37,2013-07-25 22:15:00,
2013-07-25 17:18:00,67.8,64.1,28.79,SW,225,2.4,2.4,88,0.22,RA,,0.22,WeatherDisplay:10.37,2013-07-25 22:18:00,
2013-07-25 17:19:00,67.8,64.5,28.79,WSW,248,2.3,2.4,89,0.22,RA,,0.22,WeatherDisplay:10.37,2013-07-25 22:19:00,
2013-07-25 17:20:00,67.8,64.8,28.79,WSW,248,2.3,2.3,90,0.22,RA,,0.22,WeatherDisplay:10.37,2013-07-25 22:20:00,
2013-07-25 17:23:00,67.8,64.8,28.79,ENE,68,2.3,2.3,90,0.22,,,0.22,WeatherDisplay:10.37,2013-07-25 22:23:00,
2013-07-25 17:24:00,67.6,64.6,28.79,SW,225,2.3,2.3,90,0.22,CLR,,0.22,WeatherDisplay:10.37,2013-07-25 22:24:00,
2013-07-25 17:25:00,67.6,64.6,28.79,West,270,2.3,2.3,90,0.22,CLR,,0.22,WeatherDisplay:10.37,2013-07-25 22:25:00,
2013-07-25 17:28:00,67.5,64.4,28.79,SSW,202,4.6,4.6,90,0.22,CLR,,0.22,WeatherDisplay:10.37,2013-07-25 22:28:00,
2013-07-25 17:29:00,67.5,64.4,28.79,SW,225,2.9,2.9,90,0.22,CLR,,0.22,WeatherDisplay:10.37,2013-07-25 22:29:00,
2013-07-25 17:30:00,67.3,63.9,28.79,South,180,6.2,6.2,89,0.23,RA,,0.23,WeatherDisplay:10.37,2013-07-25 22:30:00,
2013-07-25 17:33:00,67.1,63.4,28.79,ENE,68,6.9,6.9,88,0.22,RA,,0.23,WeatherDisplay:10.37,2013-07-25 22:33:00,
2013-07-25 17:34:00,66.9,63.2,28.79,NW,315,4.6,4.6,88,0.22,RA,,0.23,WeatherDisplay:10.37,2013-07-25 22:34:00,
2013-07-25 17:35:00,66.9,63.2,28.79,WNW,292,5.8,5.8,88,0.22,RA,,0.23,WeatherDisplay:10.37,2013-07-25 22:35:00,
2013-07-25 17:38:00,66.6,62.9,28.79,West,270,3.6,3.6,88,0.22,RA,,0.24,WeatherDisplay:10.37,2013-07-25 22:38:00,
2013-07-25 17:39:00,66.6,62.9,28.79,SW,225,5.4,5.4,88,0.22,RA,,0.24,WeatherDisplay:10.37,2013-07-25 22:39:00,
2013-07-25 17:40:00,66.6,62.9,28.79,West,270,5.8,5.8,88,0.21,RA,,0.24,WeatherDisplay:10.37,2013-07-25 22:40:00,
2013-07-25 17:43:00,66.4,63.0,28.79,WSW,248,6.2,6.2,89,0.20,RA,,0.24,WeatherDisplay:10.37,2013-07-25 22:43:00,
2013-07-25 17:44:00,66.4,63.0,28.79,NW,315,5.8,5.8,89,0.19,RA,,0.24,WeatherDisplay:10.37,2013-07-25 22:44:00,
2013-07-25 17:45:00,66.4,63.0,28.79,SW,225,5.8,5.8,89,0.19,RA,,0.25,WeatherDisplay:10.37,2013-07-25 22:45:00,
2013-07-25 17:48:00,66.4,63.7,28.79,SSE,158,4.6,4.6,91,0.12,RA,,0.26,WeatherDisplay:10.37,2013-07-25 22:48:00,
2013-07-25 17:49:00,66.4,63.7,28.79,WNW,292,6.4,6.4,91,0.11,RA,,0.26,WeatherDisplay:10.37,2013-07-25 22:49:00,
2013-07-25 17:50:00,66.4,63.7,28.79,SE,135,6.4,6.4,91,0.11,RA,,0.26,WeatherDisplay:10.37,2013-07-25 22:50:00,
2013-07-25 17:51:00,66.6,64.2,28.79,WSW,248,9.2,9.2,92,0.10,RA,,0.26,WeatherDisplay:10.37,2013-07-25 22:51:00,
2013-07-25 17:54:00,66.6,64.2,28.79,WSW,248,6.9,6.9,92,0.10,RA,,0.27,WeatherDisplay:10.37,2013-07-25 22:54:00,
2013-07-25 17:55:00,66.4,64.0,28.76,SW,225,6.0,6.0,92,0.09,RA,,0.27,WeatherDisplay:10.37,2013-07-25 22:55:00,
2013-07-25 17:56:00,66.4,64.3,28.76,South,180,5.8,5.8,93,0.11,RA,,0.29,WeatherDisplay:10.37,2013-07-25 22:56:00,
2013-07-25 17:59:00,66.6,64.5,28.76,WSW,248,6.9,6.9,93,0.09,RA,,0.29,WeatherDisplay:10.37,2013-07-25 22:59:00,
2013-07-25 18:00:00,66.4,64.6,28.76,SSW,202,11.5,11.5,94,0.11,RA,,0.30,WeatherDisplay:10.37,2013-07-25 23:00:00,
2013-07-25 18:01:00,66.4,64.6,28.76,South,180,11.5,11.5,94,0.11,RA,,0.30,WeatherDisplay:10.37,2013-07-25 23:01:00,
2013-07-25 18:04:00,66.4,64.3,28.76,WNW,292,9.2,9.2,93,0.09,RA,,0.30,WeatherDisplay:10.37,2013-07-25 23:04:00,
2013-07-25 18:05:00,66.4,64.3,28.76,South,180,3.5,3.5,93,0.09,RA,,0.31,WeatherDisplay:10.37,2013-07-25 23:05:00,
2013-07-25 18:06:00,66.2,64.1,28.76,SE,135,7.4,7.4,93,0.10,RA,,0.31,WeatherDisplay:10.37,2013-07-25 23:06:00,
2013-07-25 18:09:00,66.0,63.9,28.76,SSW,202,5.8,5.8,93,0.10,RA,,0.31,WeatherDisplay:10.37,2013-07-25 23:09:00,
2013-07-25 18:10:00,66.0,63.9,28.73,SSE,158,5.8,5.8,93,0.11,RA,,0.32,WeatherDisplay:10.37,2013-07-25 23:10:00,
2013-07-25 18:12:00,66.0,63.9,28.73,ENE,68,5.8,5.8,93,0.11,RA,,0.32,WeatherDisplay:10.37,2013-07-25 23:12:00,
2013-07-25 18:14:00,65.8,63.8,28.73,SSE,158,5.8,5.8,93,0.11,RA,,0.32,WeatherDisplay:10.37,2013-07-25 23:14:00,
2013-07-25 18:15:00,65.8,63.5,28.73,SSW,202,5.8,5.8,92,0.11,RA,,0.33,WeatherDisplay:10.37,2013-07-25 23:15:00,
2013-07-25 18:16:00,65.8,63.5,28.73,SSW,202,12.7,12.7,92,0.12,RA,,0.33,WeatherDisplay:10.37,2013-07-25 23:16:00,
2013-07-25 18:17:00,65.8,63.5,28.73,SSW,202,12.7,12.7,92,0.12,RA,,0.33,WeatherDisplay:10.37,2013-07-25 23:17:00,
2013-07-25 18:19:00,65.7,62.6,28.73,West,270,6.9,6.9,90,0.12,RA,,0.33,WeatherDisplay:10.37,2013-07-25 23:19:00,
2013-07-25 18:20:00,65.7,62.6,28.73,NNW,338,2.9,3.1,90,0.12,RA,,0.34,WeatherDisplay:10.37,2013-07-25 23:20:00,
2013-07-25 18:21:00,65.7,62.6,28.73,WNW,292,4.9,4.9,90,0.13,RA,,0.34,WeatherDisplay:10.37,2013-07-25 23:21:00,
2013-07-25 18:22:00,65.7,62.6,28.73,WSW,248,6.9,6.9,90,0.13,RA,,0.34,WeatherDisplay:10.37,2013-07-25 23:22:00,
2013-07-25 18:24:00,65.7,63.3,28.76,WSW,248,6.0,6.0,92,0.13,RA,,0.34,WeatherDisplay:10.37,2013-07-25 23:24:00,
2013-07-25 18:25:00,65.7,63.3,28.76,NW,315,6.0,6.0,92,0.13,RA,,0.34,WeatherDisplay:10.37,2013-07-25 23:25:00,
2013-07-25 18:26:00,65.7,63.3,28.76,WNW,292,10.4,10.4,92,0.13,RA,,0.34,WeatherDisplay:10.37,2013-07-25 23:26:00,
2013-07-25 18:27:00,65.7,63.3,28.76,NW,315,6.9,6.9,92,0.13,RA,,0.34,WeatherDisplay:10.37,2013-07-25 23:27:00,
2013-07-25 18:30:00,65.5,63.1,28.76,North,0,7.8,7.8,92,0.11,RA,,0.34,WeatherDisplay:10.37,2013-07-25 23:30:00,
2013-07-25 18:31:00,65.5,63.1,28.76,West,270,8.1,8.1,92,0.11,,,0.34,WeatherDisplay:10.37,2013-07-25 23:31:00,
2013-07-25 18:32:00,65.5,63.1,28.76,WSW,248,4.6,4.6,92,0.11,,,0.34,WeatherDisplay:10.37,2013-07-25 23:32:00,
2013-07-25 18:33:00,65.5,63.1,28.76,WSW,248,5.8,5.8,92,0.11,CLR,,0.34,WeatherDisplay:10.37,2013-07-25 23:33:00,
2013-07-25 18:35:00,65.5,63.1,28.76,NNE,22,1.2,0.0,92,0.11,CLR,,0.34,WeatherDisplay:10.37,2013-07-25 23:35:00,
2013-07-25 18:37:00,65.5,63.1,28.76,SSE,158,2.3,2.3,92,0.11,CLR,,0.34,WeatherDisplay:10.37,2013-07-25 23:37:00,
2013-07-25 18:38:00,65.5,63.1,28.76,SSW,202,2.3,2.3,92,0.11,CLR,,0.34,WeatherDisplay:10.37,2013-07-25 23:38:00,
2013-07-25 18:40:00,65.5,63.1,28.73,West,270,0.0,0.0,92,0.10,CLR,,0.34,WeatherDisplay:10.37,2013-07-25 23:40:00,
2013-07-25 18:42:00,65.7,63.3,28.73,WSW,248,2.3,2.3,92,0.10,CLR,,0.34,WeatherDisplay:10.37,2013-07-25 23:42:00,
2013-07-25 18:43:00,65.7,63.3,28.73,South,180,2.3,2.3,92,0.10,CLR,,0.34,WeatherDisplay:10.37,2013-07-25 23:43:00,
2013-07-25 18:44:00,65.7,63.3,28.73,NW,315,2.3,2.3,92,0.10,CLR,,0.34,WeatherDisplay:10.37,2013-07-25 23:44:00,
2013-07-25 18:45:00,65.7,63.3,28.73,WNW,292,1.2,0.0,92,0.09,CLR,,0.34,WeatherDisplay:10.37,2013-07-25 23:45:00,
2013-07-25 18:47:00,65.7,63.3,28.73,West,270,1.2,1.2,92,0.09,CLR,,0.34,WeatherDisplay:10.37,2013-07-25 23:47:00,
2013-07-25 18:49:00,65.7,63.3,28.73,West,270,3.5,3.5,92,0.08,CLR,,0.34,WeatherDisplay:10.37,2013-07-25 23:49:00,
2013-07-25 18:50:00,65.7,63.3,28.73,West,270,2.3,2.3,92,0.08,CLR,,0.34,WeatherDisplay:10.37,2013-07-25 23:50:00,
2013-07-25 18:53:00,65.5,63.1,28.73,WSW,248,1.2,0.0,92,0.08,CLR,,0.34,WeatherDisplay:10.37,2013-07-25 23:53:00,
2013-07-25 18:54:00,65.5,63.1,28.73,West,270,2.3,2.3,92,0.07,CLR,,0.34,WeatherDisplay:10.37,2013-07-25 23:54:00,
2013-07-25 18:55:00,65.5,63.1,28.73,SW,225,2.3,2.3,92,0.07,CLR,,0.34,WeatherDisplay:10.37,2013-07-25 23:55:00,
2013-07-25 18:58:00,65.7,63.3,28.73,South,180,4.0,4.0,92,0.06,CLR,,0.34,WeatherDisplay:10.37,2013-07-25 23:58:00,
2013-07-25 18:59:00,65.7,63.3,28.73,SW,225,4.6,4.6,92,0.06,CLR,,0.34,WeatherDisplay:10.37,2013-07-25 23:59:00,
2013-07-25 19:00:00,65.7,63.3,28.73,West,270,2.3,2.3,92,0.04,CLR,,0.34,WeatherDisplay:10.37,2013-07-26 00:00:00,
2013-07-25 19:03:00,65.7,63.3,28.73,West,270,2.3,2.3,92,0.04,CLR,,0.34,WeatherDisplay:10.37,2013-07-26 00:03:00,
2013-07-25 19:04:00,65.7,63.3,28.73,West,270,2.3,0.0,92,0.04,CLR,,0.34,WeatherDisplay:10.37,2013-07-26 00:04:00,
2013-07-25 19:05:00,65.7,63.3,28.73,NNE,22,0.0,0.0,92,0.04,CLR,,0.34,WeatherDisplay:10.37,2013-07-26 00:05:00,
2013-07-25 19:08:00,65.7,63.0,28.73,South,180,2.3,2.3,91,0.03,CLR,,0.34,WeatherDisplay:10.37,2013-07-26 00:08:00,
2013-07-25 19:09:00,65.7,63.0,28.73,SSW,202,2.3,0.0,91,0.03,CLR,,0.34,WeatherDisplay:10.37,2013-07-26 00:09:00,
2013-07-25 19:10:00,65.7,63.0,28.74,WSW,255,0.0,3.0,91,0.00,CLR,,0.34,WeatherDisplay:10.37,2013-07-26 00:10:00,
2013-07-25 19:11:00,65.7,63.0,28.76,West,270,1.2,0.0,91,0.02,CLR,,0.34,WeatherDisplay:10.37,2013-07-26 00:11:00,
2013-07-25 19:13:00,65.7,63.0,28.76,WSW,248,3.5,3.5,91,0.02,CLR,,0.34,WeatherDisplay:10.37,2013-07-26 00:13:00,
2013-07-25 19:15:00,65.7,63.0,28.76,West,270,3.5,3.5,91,0.02,CLR,,0.34,WeatherDisplay:10.37,2013-07-26 00:15:00,
2013-07-25 19:16:00,65.7,63.0,28.76,West,270,2.3,2.3,91,0.01,CLR,,0.34,WeatherDisplay:10.37,2013-07-26 00:16:00,
2013-07-25 19:17:00,65.7,63.0,28.76,SE,135,3.5,3.5,91,0.01,CLR,,0.34,WeatherDisplay:10.37,2013-07-26 00:17:00,
2013-07-25 19:18:00,65.7,63.0,28.76,SW,225,2.3,2.3,91,0.01,CLR,,0.34,WeatherDisplay:10.37,2013-07-26 00:18:00,
2013-07-25 19:20:00,65.7,62.6,28.76,West,270,1.2,0.0,90,0.01,CLR,,0.34,WeatherDisplay:10.37,2013-07-26 00:20:00,
2013-07-25 19:21:00,65.7,62.6,28.76,West,270,1.2,0.0,90,0.01,CLR,,0.34,WeatherDisplay:10.37,2013-07-26 00:21:00,
2013-07-25 19:22:00,65.7,62.6,28.76,SW,225,2.3,2.3,90,0.00,CLR,,0.34,WeatherDisplay:10.37,2013-07-26 00:22:00,
2013-07-25 19:24:00,65.7,62.6,28.76,SSW,202,1.2,0.0,90,0.00,CLR,,0.34,WeatherDisplay:10.37,2013-07-26 00:24:00,
2013-07-25 19:25:00,65.5,62.5,28.76,WSW,248,2.3,0.0,90,0.00,CLR,,0.34,WeatherDisplay:10.37,2013-07-26 00:25:00,
2013-07-25 19:26:00,65.5,62.5,28.76,SSW,202,1.2,1.2,90,0.00,CLR,,0.34,WeatherDisplay:10.37,2013-07-26 00:26:00,
2013-07-25 19:27:00,65.5,62.5,28.76,WSW,248,1.2,0.0,90,0.00,CLR,,0.34,WeatherDisplay:10.37,2013-07-26 00:27:00,
2013-07-25 19:29:00,65.5,62.5,28.76,NNW,338,1.2,1.4,90,0.00,CLR,,0.34,WeatherDisplay:10.37,2013-07-26 00:29:00,
2013-07-25 19:30:00,65.5,62.5,28.76,WSW,248,4.6,4.6,90,0.00,CLR,,0.34,WeatherDisplay:10.37,2013-07-26 00:30:00,
2013-07-25 19:32:00,65.5,62.8,28.76,West,270,4.6,0.0,91,0.00,CLR,,0.34,WeatherDisplay:10.37,2013-07-26 00:32:00,
2013-07-25 19:33:00,65.7,63.0,28.76,SW,225,2.3,2.3,91,0.00,CLR,,0.34,WeatherDisplay:10.37,2013-07-26 00:33:00,
2013-07-25 19:34:00,65.7,63.0,28.76,SSW,202,1.2,1.2,91,0.00,CLR,,0.34,WeatherDisplay:10.37,2013-07-26 00:34:00,
2013-07-25 19:35:00,65.7,63.0,28.76,SSE,158,1.6,1.6,91,0.00,CLR,,0.34,WeatherDisplay:10.37,2013-07-26 00:35:00,
2013-07-25 19:37:00,65.7,63.0,28.76,SSE,158,3.5,3.5,91,0.00,CLR,,0.34,WeatherDisplay:10.37,2013-07-26 00:37:00,
2013-07-25 19:38:00,65.7,63.0,28.76,North,0,3.5,3.5,91,0.00,CLR,,0.34,WeatherDisplay:10.37,2013-07-26 00:38:00,
2013-07-25 19:39:00,65.7,63.0,28.76,WNW,292,5.8,5.8,91,0.00,CLR,,0.34,WeatherDisplay:10.37,2013-07-26 00:39:00,
2013-07-25 19:41:00,65.7,63.0,28.76,WSW,248,3.5,3.5,91,0.00,CLR,,0.34,WeatherDisplay:10.37,2013-07-26 00:41:00,
2013-07-25 19:42:00,65.7,63.0,28.76,ESE,112,4.6,4.6,91,0.00,CLR,,0.34,WeatherDisplay:10.37,2013-07-26 00:42:00,
2013-07-25 19:43:00,65.5,62.8,28.76,SW,225,4.6,4.6,91,0.00,CLR,,0.34,WeatherDisplay:10.37,2013-07-26 00:43:00,
2013-07-25 19:44:00,65.5,62.8,28.76,WSW,248,2.3,2.3,91,0.00,CLR,,0.34,WeatherDisplay:10.37,2013-07-26 00:44:00,
2013-07-25 19:46:00,65.5,62.5,28.76,SW,225,2.3,2.3,90,0.00,CLR,,0.34,WeatherDisplay:10.37,2013-07-26 00:46:00,
2013-07-25 19:48:00,65.5,62.5,28.76,SSW,202,3.1,3.1,90,0.00,CLR,,0.34,WeatherDisplay:10.37,2013-07-26 00:48:00,
2013-07-25 19:50:00,65.5,62.5,28.76,South,180,2.0,2.0,90,0.00,CLR,,0.34,WeatherDisplay:10.37,2013-07-26 00:50:00,
2013-07-25 19:52:00,65.3,62.3,28.76,SW,225,3.5,0.0,90,0.00,CLR,,0.34,WeatherDisplay:10.37,2013-07-26 00:52:00,
2013-07-25 19:53:00,65.3,62.3,28.76,SSW,202,3.5,0.0,90,0.00,CLR,,0.34,WeatherDisplay:10.37,2013-07-26 00:53:00,
2013-07-25 19:54:00,65.3,62.3,28.76,SW,225,2.3,2.3,90,0.00,CLR,,0.34,WeatherDisplay:10.37,2013-07-26 00:54:00,
2013-07-25 19:55:00,65.3,62.3,28.73,SW,225,3.5,3.5,90,0.00,CLR,,0.34,WeatherDisplay:10.37,2013-07-26 00:55:00,
2013-07-25 19:58:00,65.3,62.3,28.73,SSW,202,2.6,2.6,90,0.00,CLR,,0.34,WeatherDisplay:10.37,2013-07-26 00:58:00,
2013-07-25 19:59:00,65.3,62.3,28.73,SSW,202,4.6,4.6,90,0.00,CLR,,0.34,WeatherDisplay:10.37,2013-07-26 00:59:00,
2013-07-25 20:00:00,65.3,62.3,28.73,SSW,202,3.5,3.5,90,0.00,CLR,,0.34,WeatherDisplay:10.37,2013-07-26 01:00:00,
2013-07-25 20:03:00,65.1,61.8,28.73,SW,225,1.2,0.0,89,0.00,CLR,,0.34,WeatherDisplay:10.37,2013-07-26 01:03:00,
2013-07-25 20:04:00,65.1,61.8,28.73,SW,225,3.6,0.0,89,0.00,CLR,,0.34,WeatherDisplay:10.37,2013-07-26 01:04:00,
2013-07-25 20:05:00,65.1,61.8,28.73,SSW,202,3.5,3.5,89,0.00,CLR,,0.34,WeatherDisplay:10.37,2013-07-26 01:05:00,
2013-07-25 20:08:00,65.1,61.8,28.73,North,0,4.6,4.6,89,0.00,CLR,,0.34,WeatherDisplay:10.37,2013-07-26 01:08:00,
2013-07-25 20:09:00,65.1,61.8,28.73,SW,225,4.9,4.9,89,0.00,CLR,,0.34,WeatherDisplay:10.37,2013-07-26 01:09:00,
2013-07-25 20:11:00,65.1,62.1,28.70,SW,225,4.6,4.6,90,0.00,CLR,,0.34,WeatherDisplay:10.37,2013-07-26 01:11:00,
2013-07-25 20:13:00,65.1,61.8,28.70,SSE,158,3.5,0.0,89,0.00,CLR,,0.34,WeatherDisplay:10.37,2013-07-26 01:13:00,
2013-07-25 20:14:00,65.1,61.8,28.70,West,270,4.6,4.6,89,0.00,CLR,,0.34,WeatherDisplay:10.37,2013-07-26 01:14:00,
2013-07-25 20:15:00,65.1,61.8,28.70,South,180,4.6,4.6,89,0.00,CLR,,0.34,WeatherDisplay:10.37,2013-07-26 01:15:00,
2013-07-25 20:16:00,65.1,61.8,28.70,NW,315,4.6,4.6,89,0.00,CLR,,0.34,WeatherDisplay:10.37,2013-07-26 01:16:00,
2013-07-25 20:18:00,65.1,61.8,28.70,SSW,202,2.3,2.3,89,0.00,CLR,,0.34,WeatherDisplay:10.37,2013-07-26 01:18:00,
2013-07-25 20:19:00,65.1,61.8,28.70,SSW,202,2.3,2.3,89,0.00,CLR,,0.34,WeatherDisplay:10.37,2013-07-26 01:19:00,
2013-07-25 20:20:00,65.1,61.8,28.70,WSW,248,1.2,1.2,89,0.00,CLR,,0.34,WeatherDisplay:10.37,2013-07-26 01:20:00,
2013-07-25 20:22:00,65.1,61.8,28.70,WNW,292,1.2,0.0,89,0.00,CLR,,0.34,WeatherDisplay:10.37,2013-07-26 01:22:00,
2013-07-25 20:24:00,64.9,61.6,28.70,WSW,248,2.0,2.0,89,0.00,CLR,,0.34,WeatherDisplay:10.37,2013-07-26 01:24:00,
2013-07-25 20:25:00,64.9,61.6,28.73,SW,225,2.3,0.0,89,0.00,CLR,,0.34,WeatherDisplay:10.37,2013-07-26 01:25:00,
2013-07-25 20:27:00,64.9,61.6,28.73,South,180,1.2,0.0,89,0.00,CLR,,0.34,WeatherDisplay:10.37,2013-07-26 01:27:00,
2013-07-25 20:29:00,64.9,61.6,28.73,NW,315,3.5,3.5,89,0.00,CLR,,0.34,WeatherDisplay:10.37,2013-07-26 01:29:00,
2013-07-25 20:30:00,64.9,61.6,28.73,SSW,202,3.5,3.5,89,0.00,CLR,,0.34,WeatherDisplay:10.37,2013-07-26 01:30:00,
2013-07-25 20:32:00,64.8,61.8,28.73,West,270,0.0,0.0,90,0.00,CLR,,0.34,WeatherDisplay:10.37,2013-07-26 01:32:00,
2013-07-25 20:34:00,64.8,61.4,28.73,SW,225,2.3,2.3,89,0.00,CLR,,0.34,WeatherDisplay:10.37,2013-07-26 01:34:00,
2013-07-25 20:35:00,64.8,61.4,28.73,SW,218,0.0,2.0,89,0.00,CLR,,0.34,WeatherDisplay:10.37,2013-07-26 01:35:00,
2013-07-25 20:37:00,64.8,61.4,28.73,SW,225,2.3,0.0,89,0.00,CLR,,0.34,WeatherDisplay:10.37,2013-07-26 01:37:00,
2013-07-25 20:39:00,64.8,61.8,28.73,South,180,2.3,2.3,90,0.00,CLR,,0.34,WeatherDisplay:10.37,2013-07-26 01:39:00,
2013-07-25 20:40:00,64.8,61.8,28.70,SSW,202,3.5,3.5,90,0.00,CLR,,0.34,WeatherDisplay:10.37,2013-07-26 01:40:00,
2013-07-25 20:41:00,64.8,61.8,28.70,WSW,248,3.5,3.5,90,0.00,CLR,,0.34,WeatherDisplay:10.37,2013-07-26 01:41:00,
2013-07-25 20:42:00,64.8,61.8,28.70,West,270,2.3,2.3,90,0.00,CLR,,0.34,WeatherDisplay:10.37,2013-07-26 01:42:00,
2013-07-25 20:44:00,64.6,61.6,28.70,SW,225,2.3,2.3,90,0.00,CLR,,0.34,WeatherDisplay:10.37,2013-07-26 01:44:00,
2013-07-25 20:45:00,64.6,61.6,28.70,SSW,202,2.3,2.3,90,0.00,CLR,,0.34,WeatherDisplay:10.37,2013-07-26 01:45:00,
2013-07-25 20:46:00,64.6,61.9,28.70,South,180,2.3,0.0,91,0.00,CLR,,0.34,WeatherDisplay:10.37,2013-07-26 01:46:00,
2013-07-25 20:47:00,64.6,61.9,28.70,SW,225,1.2,0.0,91,0.00,CLR,,0.34,WeatherDisplay:10.37,2013-07-26 01:47:00,
2013-07-25 20:49:00,64.6,61.9,28.70,SSW,202,3.5,3.5,91,0.00,CLR,,0.34,WeatherDisplay:10.37,2013-07-26 01:49:00,
2013-07-25 20:50:00,64.6,61.9,28.70,SSW,202,2.3,2.3,91,0.00,CLR,,0.34,WeatherDisplay:10.37,2013-07-26 01:50:00,
2013-07-25 20:51:00,64.6,61.9,28.70,SSW,202,3.5,3.5,91,0.00,CLR,,0.34,WeatherDisplay:10.37,2013-07-26 01:51:00,
2013-07-25 20:53:00,64.6,61.9,28.70,SSW,202,3.5,3.5,91,0.00,CLR,,0.34,WeatherDisplay:10.37,2013-07-26 01:53:00,
2013-07-25 20:54:00,64.6,61.9,28.73,SSE,158,3.5,0.0,91,0.00,CLR,,0.34,WeatherDisplay:10.37,2013-07-26 01:54:00,
2013-07-25 20:55:00,64.6,61.9,28.73,SSE,158,3.5,0.0,91,0.00,CLR,,0.34,WeatherDisplay:10.37,2013-07-26 01:55:00,
2013-07-25 20:57:00,64.6,61.9,28.73,SSW,202,2.3,2.3,91,0.00,CLR,,0.34,WeatherDisplay:10.37,2013-07-26 01:57:00,
2013-07-25 20:58:00,64.6,61.9,28.73,SSW,202,1.2,0.0,91,0.00,CLR,,0.34,WeatherDisplay:10.37,2013-07-26 01:58:00,
2013-07-25 21:00:00,64.6,61.9,28.73,SSW,202,0.0,3.0,91,0.00,CLR,,0.34,WeatherDisplay:10.37,2013-07-26 02:00:00,
2013-07-25 21:02:00,64.4,61.7,28.73,West,270,2.3,2.3,91,0.00,CLR,,0.34,WeatherDisplay:10.37,2013-07-26 02:02:00,
2013-07-25 21:03:00,64.4,61.7,28.73,WSW,248,1.2,0.0,91,0.00,CLR,,0.34,WeatherDisplay:10.37,2013-07-26 02:03:00,
2013-07-25 21:05:00,64.4,61.7,28.73,SE,135,1.2,1.2,91,0.00,CLR,,0.34,WeatherDisplay:10.37,2013-07-26 02:05:00,
2013-07-25 21:07:00,64.4,61.7,28.73,South,180,2.3,2.3,91,0.00,CLR,,0.34,WeatherDisplay:10.37,2013-07-26 02:07:00,
2013-07-25 21:09:00,64.4,61.7,28.73,WSW,248,3.5,3.5,91,0.00,CLR,,0.34,WeatherDisplay:10.37,2013-07-26 02:09:00,
2013-07-25 21:10:00,64.4,61.7,28.73,SW,225,3.5,0.0,91,0.00,CLR,,0.34,WeatherDisplay:10.37,2013-07-26 02:10:00,
2013-07-25 21:12:00,64.4,61.7,28.73,South,180,2.4,2.4,91,0.00,CLR,,0.34,WeatherDisplay:10.37,2013-07-26 02:12:00,
2013-07-25 21:14:00,64.4,61.7,28.73,SSW,202,3.5,3.5,91,0.00,CLR,,0.34,WeatherDisplay:10.37,2013-07-26 02:14:00,
2013-07-25 21:15:00,64.4,61.7,28.73,WSW,248,3.5,3.5,91,0.00,CLR,,0.34,WeatherDisplay:10.37,2013-07-26 02:15:00,
2013-07-25 21:16:00,64.4,61.7,28.73,WSW,248,3.5,3.5,91,0.00,CLR,,0.34,WeatherDisplay:10.37,2013-07-26 02:16:00,
2013-07-25 21:17:00,64.4,61.7,28.73,West,270,4.6,4.6,91,0.00,CLR,,0.34,WeatherDisplay:10.37,2013-07-26 02:17:00,
2013-07-25 21:19:00,64.4,61.7,28.73,SSW,202,4.3,4.3,91,0.00,CLR,,0.34,WeatherDisplay:10.37,2013-07-26 02:19:00,
2013-07-25 21:20:00,64.4,61.7,28.73,SSW,202,4.6,4.6,91,0.00,CLR,,0.34,WeatherDisplay:10.37,2013-07-26 02:20:00,
2013-07-25 21:21:00,64.4,61.4,28.73,SW,225,3.5,3.5,90,0.00,CLR,,0.34,WeatherDisplay:10.37,2013-07-26 02:21:00,
2013-07-25 21:22:00,64.4,61.4,28.73,SSE,158,3.5,3.5,90,0.00,CLR,,0.34,WeatherDisplay:10.37,2013-07-26 02:22:00,
2013-07-25 21:24:00,64.4,61.4,28.73,SSE,158,4.3,4.3,90,0.00,CLR,,0.34,WeatherDisplay:10.37,2013-07-26 02:24:00,
2013-07-25 21:26:00,64.4,61.4,28.73,SSW,202,3.5,3.5,90,0.00,CLR,,0.34,WeatherDisplay:10.37,2013-07-26 02:26:00,
2013-07-25 21:27:00,64.4,61.4,28.73,SSW,202,3.5,3.5,90,0.00,CLR,,0.34,WeatherDisplay:10.37,2013-07-26 02:27:00,
2013-07-25 21:28:00,64.4,61.4,28.73,SSE,158,3.5,3.5,90,0.00,CLR,,0.34,WeatherDisplay:10.37,2013-07-26 02:28:00,
2013-07-25 21:30:00,64.4,61.4,28.73,SSW,202,3.5,3.5,90,0.00,CLR,,0.34,WeatherDisplay:10.37,2013-07-26 02:30:00,
2013-07-25 21:31:00,64.4,61.4,28.73,West,270,1.2,1.2,90,0.00,CLR,,0.34,WeatherDisplay:10.37,2013-07-26 02:31:00,
2013-07-25 21:32:00,64.2,61.2,28.73,SW,225,3.5,3.5,90,0.00,CLR,,0.34,WeatherDisplay:10.37,2013-07-26 02:32:00,
2013-07-25 21:33:00,64.2,61.2,28.73,SSE,158,3.5,3.5,90,0.00,CLR,,0.34,WeatherDisplay:10.37,2013-07-26 02:33:00,
2013-07-25 21:35:00,64.2,61.2,28.73,SE,135,3.5,3.5,90,0.00,CLR,,0.34,WeatherDisplay:10.37,2013-07-26 02:35:00,
2013-07-25 21:37:00,64.2,61.2,28.73,South,180,3.5,3.5,90,0.00,CLR,,0.34,WeatherDisplay:10.37,2013-07-26 02:37:00,
2013-07-25 21:38:00,64.2,61.2,28.73,WSW,248,4.6,4.6,90,0.00,CLR,,0.34,WeatherDisplay:10.37,2013-07-26 02:38:00,
2013-07-25 21:40:00,64.2,61.2,28.73,SE,135,2.3,0.0,90,0.00,CLR,,0.34,WeatherDisplay:10.37,2013-07-26 02:40:00,
2013-07-25 21:42:00,64.2,61.2,28.73,SSE,158,4.6,4.6,90,0.00,CLR,,0.34,WeatherDisplay:10.37,2013-07-26 02:42:00,
2013-07-25 21:43:00,64.2,61.2,28.73,SSE,158,1.6,1.6,90,0.00,CLR,,0.34,WeatherDisplay:10.37,2013-07-26 02:43:00,
2013-07-25 21:45:00,64.2,61.2,28.73,ESE,112,2.3,2.3,90,0.00,CLR,,0.34,WeatherDisplay:10.37,2013-07-26 02:45:00,
2013-07-25 21:47:00,64.0,61.0,28.73,SW,225,3.5,3.5,90,0.00,CLR,,0.34,WeatherDisplay:10.37,2013-07-26 02:47:00,
2013-07-25 21:48:00,64.0,60.7,28.73,North,0,3.5,3.5,89,0.00,CLR,,0.34,WeatherDisplay:10.37,2013-07-26 02:48:00,
2013-07-25 21:51:00,64.0,60.7,28.73,WSW,248,3.5,3.5,89,0.00,CLR,,0.34,WeatherDisplay:10.37,2013-07-26 02:51:00,
2013-07-25 21:52:00,64.0,60.7,28.73,SSW,202,2.3,2.3,89,0.00,CLR,,0.34,WeatherDisplay:10.37,2013-07-26 02:52:00,
2013-07-25 21:53:00,64.0,60.7,28.73,WNW,292,2.3,2.3,89,0.00,CLR,,0.34,WeatherDisplay:10.37,2013-07-26 02:53:00,
2013-07-25 21:54:00,64.0,60.7,28.73,SE,135,1.2,0.0,89,0.00,CLR,,0.34,WeatherDisplay:10.37,2013-07-26 02:54:00,
2013-07-25 21:56:00,64.0,60.7,28.73,WNW,292,2.3,2.3,89,0.00,CLR,,0.34,WeatherDisplay:10.37,2013-07-26 02:56:00,
2013-07-25 21:57:00,64.0,60.7,28.73,SSW,202,2.0,2.0,89,0.00,CLR,,0.34,WeatherDisplay:10.37,2013-07-26 02:57:00,
2013-07-25 21:58:00,64.0,60.7,28.73,SSW,202,3.5,3.5,89,0.00,CLR,,0.34,WeatherDisplay:10.37,2013-07-26 02:58:00,
2013-07-25 21:59:00,64.0,60.7,28.73,SW,225,3.5,3.5,89,0.00,CLR,,0.34,WeatherDisplay:10.37,2013-07-26 02:59:00,
2013-07-25 22:01:00,64.0,60.7,28.73,SE,135,4.6,4.6,89,0.00,CLR,,0.34,WeatherDisplay:10.37,2013-07-26 03:01:00,
2013-07-25 22:02:00,63.9,60.6,28.73,South,180,4.3,4.3,89,0.00,CLR,,0.34,WeatherDisplay:10.37,2013-07-26 03:02:00,
2013-07-25 22:03:00,63.9,60.6,28.73,SSW,202,4.6,4.6,89,0.00,CLR,,0.34,WeatherDisplay:10.37,2013-07-26 03:03:00,
2013-07-25 22:04:00,63.9,60.6,28.73,SW,225,2.3,2.3,89,0.00,CLR,,0.34,WeatherDisplay:10.37,2013-07-26 03:04:00,
2013-07-25 22:06:00,63.9,60.6,28.73,WSW,248,3.5,3.5,89,0.00,CLR,,0.34,WeatherDisplay:10.37,2013-07-26 03:06:00,
2013-07-25 22:07:00,63.9,60.6,28.73,SW,225,3.5,3.5,89,0.00,CLR,,0.34,WeatherDisplay:10.37,2013-07-26 03:07:00,
2013-07-25 22:09:00,63.9,60.6,28.73,SE,135,1.2,1.2,89,0.00,CLR,,0.34,WeatherDisplay:10.37,2013-07-26 03:09:00,
2013-07-25 22:10:00,63.9,60.6,28.73,SSW,202,2.4,2.4,89,0.00,CLR,,0.34,WeatherDisplay:10.37,2013-07-26 03:10:00,
2013-07-25 22:12:00,63.9,60.6,28.73,SW,225,2.3,2.3,89,0.00,CLR,,0.34,WeatherDisplay:10.37,2013-07-26 03:12:00,
2013-07-25 22:13:00,63.9,60.6,28.73,SSW,202,2.3,2.3,89,0.00,CLR,,0.34,WeatherDisplay:10.37,2013-07-26 03:13:00,
2013-07-25 22:14:00,63.9,60.6,28.73,SW,225,2.3,2.3,89,0.00,CLR,,0.34,WeatherDisplay:10.37,2013-07-26 03:14:00,
2013-07-25 22:15:00,63.9,60.6,28.73,SW,216,1.0,4.0,89,0.00,CLR,,0.34,WeatherDisplay:10.37,2013-07-26 03:15:00,
2013-07-25 22:17:00,63.9,60.6,28.73,West,270,4.6,4.6,89,0.00,CLR,,0.34,WeatherDisplay:10.37,2013-07-26 03:17:00,
2013-07-25 22:18:00,63.9,60.6,28.73,SSW,202,4.6,4.6,89,0.00,CLR,,0.34,WeatherDisplay:10.37,2013-07-26 03:18:00,
2013-07-25 22:19:00,63.9,60.6,28.73,SSE,158,2.9,2.9,89,0.00,CLR,,0.34,WeatherDisplay:10.37,2013-07-26 03:19:00,
2013-07-25 22:20:00,63.9,60.6,28.73,WNW,292,2.6,2.6,89,0.00,CLR,,0.34,WeatherDisplay:10.37,2013-07-26 03:20:00,
2013-07-25 22:22:00,63.9,60.6,28.73,SSW,202,2.3,0.0,89,0.00,CLR,,0.34,WeatherDisplay:10.37,2013-07-26 03:22:00,
2013-07-25 22:23:00,63.9,60.6,28.73,SSE,158,2.0,0.0,89,0.00,CLR,,0.34,WeatherDisplay:10.37,2013-07-26 03:23:00,
2013-07-25 22:24:00,63.9,60.6,28.73,WSW,248,3.5,3.5,89,0.00,CLR,,0.34,WeatherDisplay:10.37,2013-07-26 03:24:00,
2013-07-25 22:25:00,63.9,60.6,28.73,SW,217,2.0,5.0,89,0.00,CLR,,0.34,WeatherDisplay:10.37,2013-07-26 03:25:00,
2013-07-25 22:27:00,63.7,60.1,28.73,WSW,248,2.3,2.3,88,0.00,CLR,,0.34,WeatherDisplay:10.37,2013-07-26 03:27:00,
2013-07-25 22:28:00,63.7,60.1,28.73,SW,225,2.3,0.0,88,0.00,CLR,,0.34,WeatherDisplay:10.37,2013-07-26 03:28:00,
2013-07-25 22:29:00,63.7,60.1,28.73,SW,225,2.6,2.6,88,0.00,CLR,,0.34,WeatherDisplay:10.37,2013-07-26 03:29:00,
2013-07-25 22:30:00,63.7,60.1,28.73,SW,225,1.2,1.2,88,0.00,CLR,,0.34,WeatherDisplay:10.37,2013-07-26 03:30:00,
2013-07-25 22:31:00,63.7,60.1,28.73,SW,225,1.4,1.4,88,0.00,CLR,,0.34,WeatherDisplay:10.37,2013-07-26 03:31:00,
2013-07-25 22:33:00,63.7,60.1,28.73,South,180,2.6,2.6,88,0.00,CLR,,0.34,WeatherDisplay:10.37,2013-07-26 03:33:00,
2013-07-25 22:34:00,63.7,60.1,28.73,SSE,158,2.3,2.3,88,0.00,CLR,,0.34,WeatherDisplay:10.37,2013-07-26 03:34:00,
2013-07-25 22:35:00,63.7,60.1,28.73,South,180,2.3,2.3,88,0.00,CLR,,0.34,WeatherDisplay:10.37,2013-07-26 03:35:00,
2013-07-25 22:36:00,63.7,60.4,28.73,SSW,202,2.3,2.3,89,0.00,CLR,,0.34,WeatherDisplay:10.37,2013-07-26 03:36:00,
2013-07-25 22:38:00,63.5,60.2,28.73,WSW,248,2.0,2.0,89,0.00,CLR,,0.34,WeatherDisplay:10.37,2013-07-26 03:38:00,
2013-07-25 22:40:00,63.5,60.2,28.73,SW,225,3.5,3.5,89,0.00,CLR,,0.34,WeatherDisplay:10.37,2013-07-26 03:40:00,
2013-07-25 22:41:00,63.5,60.2,28.73,South,180,2.3,2.3,89,0.00,CLR,,0.34,WeatherDisplay:10.37,2013-07-26 03:41:00,
2013-07-25 22:43:00,63.5,59.9,28.73,WSW,248,2.6,2.6,88,0.00,CLR,,0.34,WeatherDisplay:10.37,2013-07-26 03:43:00,
2013-07-25 22:44:00,63.5,60.2,28.73,SSW,202,2.3,2.3,89,0.00,CLR,,0.34,WeatherDisplay:10.37,2013-07-26 03:44:00,
2013-07-25 22:46:00,63.5,60.2,28.73,WSW,248,3.5,3.5,89,0.00,CLR,,0.34,WeatherDisplay:10.37,2013-07-26 03:46:00,
2013-07-25 22:48:00,63.5,59.9,28.73,WSW,248,2.3,2.3,88,0.00,CLR,,0.34,WeatherDisplay:10.37,2013-07-26 03:48:00,
2013-07-25 22:49:00,63.5,59.9,28.73,SSW,202,2.3,2.3,88,0.00,CLR,,0.34,WeatherDisplay:10.37,2013-07-26 03:49:00,
2013-07-25 22:51:00,63.5,59.9,28.73,SW,225,3.5,3.5,88,0.00,CLR,,0.34,WeatherDisplay:10.37,2013-07-26 03:51:00,
2013-07-25 22:52:00,63.5,59.9,28.73,South,180,1.2,1.2,88,0.00,CLR,,0.34,WeatherDisplay:10.37,2013-07-26 03:52:00,
2013-07-25 22:54:00,63.5,59.9,28.73,SW,225,0.0,0.0,88,0.00,CLR,,0.34,WeatherDisplay:10.37,2013-07-26 03:54:00,
2013-07-25 22:56:00,63.5,59.9,28.73,SSE,158,2.3,0.0,88,0.00,CLR,,0.34,WeatherDisplay:10.37,2013-07-26 03:56:00,
2013-07-25 22:57:00,63.5,59.9,28.73,SSW,202,2.3,2.3,88,0.00,CLR,,0.34,WeatherDisplay:10.37,2013-07-26 03:57:00,
2013-07-25 22:59:00,63.5,59.9,28.73,SSW,202,1.2,0.0,88,0.00,CLR,,0.34,WeatherDisplay:10.37,2013-07-26 03:59:00,
2013-07-25 23:00:00,63.5,59.9,28.73,SSW,202,0.0,0.0,88,0.00,CLR,,0.34,WeatherDisplay:10.37,2013-07-26 04:00:00,
2013-07-25 23:02:00,63.3,59.4,28.73,SSW,202,0.0,0.0,87,0.00,CLR,,0.34,WeatherDisplay:10.37,2013-07-26 04:02:00,
2013-07-25 23:07:00,63.1,59.2,28.73,SSW,202,0.0,0.0,87,0.00,CLR,,0.34,WeatherDisplay:10.37,2013-07-26 04:07:00,
2013-07-25 23:12:00,63.0,59.0,28.73,South,180,0.0,0.0,87,0.00,CLR,,0.34,WeatherDisplay:10.37,2013-07-26 04:12:00,
2013-07-25 23:17:00,63.0,59.0,28.73,SSW,202,2.3,0.0,87,0.00,CLR,,0.34,WeatherDisplay:10.37,2013-07-26 04:17:00,
2013-07-25 23:18:00,63.1,59.5,28.73,WSW,248,1.2,0.0,88,0.00,CLR,,0.34,WeatherDisplay:10.37,2013-07-26 04:18:00,
2013-07-25 23:22:00,63.1,59.5,28.73,SW,225,2.3,2.3,88,0.00,CLR,,0.34,WeatherDisplay:10.37,2013-07-26 04:22:00,
2013-07-25 23:23:00,63.1,59.5,28.73,SSW,202,2.3,2.3,88,0.00,CLR,,0.34,WeatherDisplay:10.37,2013-07-26 04:23:00,
2013-07-25 23:27:00,63.1,59.5,28.73,WSW,248,0.0,0.0,88,0.00,CLR,,0.34,WeatherDisplay:10.37,2013-07-26 04:27:00,
2013-07-25 23:28:00,63.1,59.5,28.73,West,270,1.2,0.0,88,0.00,CLR,,0.34,WeatherDisplay:10.37,2013-07-26 04:28:00,
2013-07-25 23:29:00,63.1,59.5,28.73,SSW,202,2.3,2.3,88,0.00,CLR,,0.34,WeatherDisplay:10.37,2013-07-26 04:29:00,
2013-07-25 23:32:00,63.1,59.5,28.73,SW,225,1.6,1.6,88,0.00,CLR,,0.34,WeatherDisplay:10.37,2013-07-26 04:32:00,
2013-07-25 23:33:00,63.1,59.5,28.73,West,270,2.3,2.3,88,0.00,CLR,,0.34,WeatherDisplay:10.37,2013-07-26 04:33:00,
2013-07-25 23:34:00,63.1,59.5,28.73,SSE,158,2.3,2.3,88,0.00,CLR,,0.34,WeatherDisplay:10.37,2013-07-26 04:34:00,
2013-07-25 23:38:00,63.5,60.2,28.73,SSW,202,2.3,2.3,89,0.00,CLR,,0.34,WeatherDisplay:10.37,2013-07-26 04:38:00,
2013-07-25 23:39:00,63.5,60.2,28.73,SSW,202,2.3,0.0,89,0.00,CLR,,0.34,WeatherDisplay:10.37,2013-07-26 04:39:00,
2013-07-25 23:43:00,63.5,60.2,28.73,East,90,0.0,0.0,89,0.00,CLR,,0.34,WeatherDisplay:10.37,2013-07-26 04:43:00,
2013-07-25 23:44:00,63.5,60.2,28.73,SW,225,2.6,2.6,89,0.00,CLR,,0.34,WeatherDisplay:10.37,2013-07-26 04:44:00,
2013-07-25 23:48:00,63.5,60.2,28.73,SSE,158,3.5,3.5,89,0.00,CLR,,0.34,WeatherDisplay:10.37,2013-07-26 04:48:00,
2013-07-25 23:50:00,63.7,60.4,28.73,SSW,202,3.5,3.5,89,0.00,CLR,,0.34,WeatherDisplay:10.37,2013-07-26 04:50:00,
2013-07-25 23:53:00,63.5,60.2,28.73,WSW,248,2.4,2.4,89,0.00,CLR,,0.34,WeatherDisplay:10.37,2013-07-26 04:53:00,
2013-07-25 23:54:00,63.5,60.2,28.73,SW,225,2.3,2.3,89,0.00,CLR,,0.34,WeatherDisplay:10.37,2013-07-26 04:54:00,
2013-07-25 23:55:00,63.5,60.2,28.70,ESE,112,3.5,3.5,89,0.00,CLR,,0.34,WeatherDisplay:10.37,2013-07-26 04:55:00,
2013-07-25 23:58:00,63.7,60.7,28.70,SSE,158,2.3,2.3,90,0.00,CLR,,0.34,WeatherDisplay:10.37,2013-07-26 04:58:00,
2013-07-25 23:59:00,63.7,60.7,28.70,South,180,2.3,2.3,90,0.00,CLR,,0.34,WeatherDisplay:10.37,2013-07-26 04:59:00,